CW2988 Weather Reports


Display with metric or nautical units.
time (UTC)temp
F
wind
direction
speed
MPH
gust
MPH
rain 1hr
in
rain 24hr
in
rain mn
in
humidity
%
barometer
mb
20170817192205 75 277 17.0 24.0 0.00 0.05 0.00 73 1007.4
20170817192104 75 292 15.0 24.0 0.00 0.05 0.00 74 1007.4
20170817192004 75 271 13.0 24.0 0.00 0.05 0.00 73 1007.4
20170817191910 75 256 12.0 24.0 0.00 0.05 0.00 74 1007.4
20170817191808 75 283 13.0 24.0 0.00 0.05 0.00 73 1007.4
20170817191704 75 257 14.0 24.0 0.00 0.05 0.00 74 1007.4
20170817191607 75 282 16.0 24.0 0.00 0.05 0.00 73 1007.5
20170817191504 75 285 17.0 24.0 0.00 0.05 0.00 72 1007.5
20170817191357 75 282 18.0 24.0 0.00 0.05 0.00 72 1007.5
20170817191315 75 258 18.0 24.0 0.00 0.05 0.00 72 1007.4
20170817191214 75 265 16.0 24.0 0.00 0.05 0.00 73 1007.4
20170817191113 75 281 14.0 21.0 0.00 0.05 0.00 73 1007.5
20170817190909 75 278 14.0 20.0 0.00 0.05 0.00 74 1007.4
20170817190809 75 265 13.0 20.0 0.00 0.05 0.00 74 1007.4
20170817190607 75 263 14.0 20.0 0.00 0.05 0.00 74 1007.3
20170817190505 75 278 15.0 20.0 0.00 0.05 0.00 73 1007.3
20170817190359 75 290 16.0 20.0 0.00 0.05 0.00 74 1007.3
20170817190159 75 279 14.0 20.0 0.00 0.05 0.00 74 1007.3
20170817190113 75 290 13.0 20.0 0.00 0.05 0.00 74 1007.4
20170817190010 75 283 14.0 22.0 0.00 0.05 0.00 74 1007.3
20170817185905 75 281 14.0 24.0 0.00 0.05 0.00 73 1007.3
20170817185801 75 288 14.0 24.0 0.00 0.05 0.00 74 1007.3
20170817185659 75 285 14.0 24.0 0.00 0.05 0.00 74 1007.3
20170817185559 75 281 14.0 24.0 0.00 0.05 0.00 73 1007.3
20170817185500 75 285 14.0 25.0 0.00 0.05 0.00 73 1007.3
20170817185412 75 279 15.0 25.0 0.00 0.05 0.00 73 1007.3
20170817185310 75 290 16.0 25.0 0.00 0.05 0.00 73 1007.3
20170817185209 75 281 18.0 25.0 0.00 0.05 0.00 71 1007.3
20170817185109 75 279 20.0 25.0 0.00 0.05 0.00 71 1007.3
20170817185001 75 279 18.0 25.0 0.00 0.05 0.00 71 1007.3
20170817184913 75 283 16.0 25.0 0.00 0.05 0.00 72 1007.3
20170817184816 75 286 17.0 25.0 0.00 0.05 0.00 71 1007.3
20170817184708 76 275 18.0 25.0 0.00 0.05 0.00 71 1007.3
20170817184602 76 290 17.0 25.0 0.00 0.05 0.00 71 1007.3
20170817184501 76 252 15.0 23.0 0.00 0.05 0.00 72 1007.3
20170817184312 76 270 15.0 23.0 0.00 0.05 0.00 71 1007.3
20170817184211 76 273 17.0 24.0 0.00 0.05 0.00 71 1007.2
20170817184113 76 286 18.0 24.0 0.00 0.05 0.00 72 1007.2
20170817184013 76 286 16.0 24.0 0.00 0.05 0.00 72 1007.3
20170817183906 76 283 14.0 24.0 0.00 0.05 0.00 74 1007.2
20170817183805 76 261 15.0 24.0 0.00 0.05 0.00 76 1007.2
20170817183719 76 281 16.0 24.0 0.00 0.05 0.00 76 1007.2
20170817183614 75 279 17.0 24.0 0.00 0.05 0.00 73 1007.2
20170817183512 75 298 16.0 24.0 0.00 0.05 0.00 74 1007.2
20170817183410 75 283 17.0 24.0 0.00 0.05 0.00 73 1007.2
20170817183308 75 295 14.0 22.0 0.00 0.05 0.00 73 1007.2
20170817183207 75 279 14.0 22.0 0.00 0.05 0.00 75 1007.1
20170817183106 75 255 15.0 22.0 0.00 0.05 0.00 73 1007.2
20170817183004 75 259 16.0 22.0 0.00 0.05 0.00 73 1007.3
20170817182858 75 267 16.0 22.0 0.00 0.05 0.00 73 1007.2
20170817182757 75 267 16.0 22.0 0.00 0.05 0.00 74 1007.3
20170817182701 75 278 17.0 24.0 0.00 0.05 0.00 74 1007.3
20170817182601 75 288 15.0 24.0 0.00 0.05 0.00 74 1007.3
20170817182459 75 280 13.0 24.0 0.00 0.05 0.00 75 1007.2
20170817182413 75 286 13.0 24.0 0.00 0.05 0.00 75 1007.3
20170817182312 75 274 14.0 24.0 0.00 0.05 0.00 73 1007.3
20170817182210 75 292 16.0 24.0 0.00 0.05 0.00 73 1007.2
20170817182105 75 279 18.0 24.0 0.00 0.05 0.00 73 1007.3
20170817182008 75 281 17.0 24.0 0.00 0.05 0.00 74 1007.3
20170817181917 76 280 17.0 24.0 0.00 0.05 0.00 73 1007.2
20170817181814 75 281 17.0 23.0 0.00 0.05 0.00 73 1007.2
20170817181713 75 272 17.0 23.0 0.00 0.05 0.00 75 1007.2
20170817181607 75 285 17.0 23.0 0.00 0.05 0.00 72 1007.2
20170817181503 75 283 14.0 23.0 0.00 0.05 0.00 76 1007.2
20170817181413 75 279 14.0 23.0 0.00 0.05 0.00 76 1007.2
20170817181315 75 279 16.0 23.0 0.00 0.05 0.00 76 1007.3
20170817181213 75 270 17.0 23.0 0.00 0.05 0.00 75 1007.2
20170817181113 75 271 16.0 22.0 0.00 0.05 0.00 75 1007.2
20170817181012 75 271 15.0 19.0 0.00 0.05 0.00 76 1007.2
20170817180858 75 280 13.0 19.0 0.00 0.05 0.00 76 1007.3
20170817180757 75 286 14.0 19.0 0.00 0.05 0.00 75 1007.2
20170817180710 75 267 13.0 20.0 0.00 0.05 0.00 74 1007.2
20170817180614 75 277 13.0 20.0 0.00 0.05 0.00 75 1007.2
20170817180512 75 281 12.0 20.0 0.00 0.05 0.00 76 1007.2
20170817180406 75 286 13.0 20.0 0.00 0.05 0.00 76 1007.2
20170817180302 75 286 14.0 20.0 0.00 0.05 0.00 76 1007.1
20170817180158 75 302 15.0 20.0 0.00 0.05 0.00 76 1007.2
20170817180057 75 281 15.0 20.0 0.00 0.05 0.00 76 1007.2
20170817180012 75 283 16.0 20.0 0.00 0.05 0.00 77 1007.2
20170817175808 75 275 15.0 20.0 0.00 0.05 0.00 76 1007.2
20170817175707 74 277 14.0 20.0 0.00 0.05 0.00 75 1007.2
20170817175607 74 272 12.0 19.0 0.00 0.05 0.00 77 1007.2
20170817175505 74 284 13.0 21.0 0.00 0.05 0.00 76 1007.2
20170817175359 74 279 13.0 21.0 0.00 0.05 0.00 76 1007.2
20170817175309 74 263 14.0 21.0 0.00 0.05 0.00 75 1007.2
20170817175208 74 286 14.0 21.0 0.00 0.05 0.00 76 1007.3
20170817175107 74 292 15.0 21.0 0.00 0.05 0.00 76 1007.3
20170817175008 74 300 15.0 21.0 0.00 0.05 0.00 75 1007.3
20170817174901 74 294 16.0 21.0 0.00 0.05 0.00 75 1007.2
20170817174800 74 291 16.0 21.0 0.00 0.05 0.00 75 1007.3
20170817174659 74 279 15.0 21.0 0.00 0.05 0.00 76 1007.3
20170817174616 74 281 13.0 21.0 0.00 0.05 0.00 76 1007.3
20170817174500 74 271 12.0 21.0 0.00 0.05 0.00 78 1007.3
20170817174411 74 290 13.0 21.0 0.00 0.05 0.00 77 1007.3
20170817174304 74 279 15.0 21.0 0.00 0.05 0.00 77 1007.3
20170817174202 74 279 15.0 21.0 0.00 0.05 0.00 75 1007.3
20170817174000 74 304 16.0 21.0 0.00 0.05 0.00 75 1007.3
20170817173913 74 302 15.0 21.0 0.00 0.05 0.00 75 1007.3
20170817173814 74 279 14.0 21.0 0.00 0.05 0.00 77 1007.3
20170817173707 74 266 14.0 21.0 0.00 0.05 0.00 76 1007.2
20170817173618 74 268 14.0 22.0 0.00 0.05 0.00 77 1007.2
20170817173511 74 286 14.0 23.0 0.00 0.05 0.00 76 1007.3
20170817173405 74 304 14.0 24.0 0.00 0.05 0.00 77 1007.2
20170817173304 74 292 14.0 24.0 0.00 0.05 0.00 77 1007.2
20170817173216 74 271 14.0 24.0 0.00 0.05 0.00 77 1007.3
20170817173113 75 281 15.0 24.0 0.00 0.05 0.00 76 1007.2
20170817173015 75 281 15.0 24.0 0.00 0.05 0.00 76 1007.1
20170817172909 75 295 17.0 24.0 0.00 0.05 0.00 75 1007.1
20170817172806 75 281 18.0 24.0 0.00 0.05 0.00 74 1007.1
20170817172701 75 292 19.0 24.0 0.00 0.05 0.00 74 1007.1
20170817172600 75 279 19.0 24.0 0.00 0.05 0.00 73 1007.0
20170817172516 75 292 17.0 23.0 0.00 0.05 0.00 74 1007.1
20170817172409 75 292 16.0 23.0 0.00 0.05 0.00 74 1007.0
20170817172313 75 294 15.0 23.0 0.00 0.05 0.00 75 1007.0
20170817172212 75 308 15.0 24.0 0.00 0.05 0.00 76 1007.0
20170817172108 75 286 14.0 25.0 0.00 0.05 0.00 75 1007.0
20170817172005 75 281 14.0 25.0 0.00 0.05 0.00 78 1006.9
20170817171858 75 288 15.0 25.0 0.00 0.05 0.00 78 1007.0
20170817171817 75 292 16.0 25.0 0.00 0.05 0.00 75 1006.9
20170817171658 75 283 17.0 25.0 0.00 0.05 0.00 75 1007.0
20170817171557 75 279 18.0 26.0 0.00 0.05 0.00 75 1007.0
20170817171512 75 288 18.0 26.0 0.00 0.05 0.00 75 1007.0
20170817171402 75 286 18.0 26.0 0.00 0.05 0.00 74 1006.9
20170817171301 75 279 18.0 26.0 0.00 0.05 0.00 75 1007.0
20170817171201 75 294 18.0 26.0 0.00 0.05 0.00 75 1007.0
20170817171059 75 273 19.0 26.0 0.00 0.05 0.00 74 1006.9
20170817171003 75 276 20.0 26.0 0.00 0.05 0.00 74 1006.9
20170817170916 75 284 19.0 26.0 0.00 0.05 0.00 74 1006.9
20170817170815 75 272 18.0 26.0 0.00 0.05 0.00 74 1006.9
20170817170713 75 267 17.0 26.0 0.00 0.05 0.00 75 1006.9
20170817170510 75 273 16.0 26.0 0.00 0.05 0.00 74 1006.9
20170817170404 75 268 15.0 23.0 0.00 0.05 0.00 78 1006.9
20170817170307 75 236 13.0 23.0 0.00 0.05 0.00 78 1006.9
20170817170206 75 252 15.0 23.0 0.00 0.05 0.00 78 1006.9
20170817170105 75 277 17.0 23.0 0.00 0.05 0.00 76 1006.9
20170817165926 75 279 17.0 23.0 0.00 0.05 0.00 74 1006.8
20170817165805 75 286 17.0 24.0 0.00 0.05 0.00 76 1006.8
20170817165704 75 288 19.0 24.0 0.00 0.05 0.00 76 1006.9
20170817165603 75 275 19.0 24.0 0.00 0.05 0.00 75 1006.9
20170817165501 75 290 18.0 24.0 0.00 0.05 0.00 75 1006.9
20170817165415 75 281 17.0 24.0 0.00 0.05 0.00 76 1006.9
20170817165313 75 288 15.0 25.0 0.00 0.05 0.00 78 1006.9
20170817165210 75 280 15.0 26.0 0.00 0.05 0.00 78 1006.8
20170817165108 75 287 17.0 26.0 0.00 0.05 0.00 76 1006.9
20170817165007 75 269 18.0 26.0 0.00 0.05 0.00 75 1006.9
20170817164859 75 275 18.0 26.0 0.00 0.05 0.00 76 1006.8
20170817164801 75 281 17.0 26.0 0.00 0.05 0.00 77 1006.9
20170817164659 75 264 18.0 26.0 0.00 0.05 0.00 77 1006.8
20170817164616 75 268 19.0 26.0 0.00 0.05 0.00 77 1006.7
20170817164505 75 269 20.0 26.0 0.00 0.05 0.00 75 1006.8
20170817164358 75 276 18.0 26.0 0.00 0.05 0.00 76 1006.7
20170817164314 75 293 16.0 23.0 0.00 0.05 0.00 76 1006.8
20170817164210 75 299 14.0 23.0 0.00 0.05 0.00 78 1006.8
20170817164110 75 260 15.0 23.0 0.00 0.05 0.00 80 1006.7
20170817164007 75 269 16.0 23.0 0.00 0.05 0.00 77 1006.7
20170817163900 75 286 16.0 23.0 0.00 0.05 0.00 78 1006.7
20170817163758 75 281 17.0 23.0 0.00 0.05 0.00 78 1006.7
20170817163717 75 285 19.0 23.0 0.00 0.05 0.00 77 1006.6
20170817163615 75 269 19.0 23.0 0.00 0.05 0.00 77 1006.6
20170817163508 75 256 17.0 24.0 0.00 0.05 0.00 78 1006.7
20170817163359 75 281 16.0 24.0 0.00 0.05 0.00 79 1006.7
20170817163257 75 271 15.0 24.0 0.00 0.05 0.00 78 1006.7
20170817163216 75 284 15.0 24.0 0.00 0.05 0.00 78 1006.6
20170817163115 75 280 16.0 24.0 0.00 0.05 0.00 77 1006.7
20170817163014 75 290 15.0 24.0 0.00 0.05 0.00 78 1006.6
20170817162907 75 291 14.0 24.0 0.00 0.05 0.00 81 1006.6
20170817162804 74 269 15.0 24.0 0.00 0.05 0.00 78 1006.5
20170817162705 74 278 15.0 23.0 0.00 0.05 0.00 79 1006.6
20170817162602 74 281 15.0 23.0 0.00 0.05 0.00 80 1006.5
20170817162501 74 277 15.0 23.0 0.00 0.05 0.00 80 1006.5
20170817162413 74 284 15.0 23.0 0.00 0.05 0.00 79 1006.6
20170817162313 74 282 16.0 23.0 0.00 0.05 0.00 80 1006.6
20170817162210 74 273 18.0 23.0 0.00 0.05 0.00 78 1006.6
20170817162108 74 282 18.0 23.0 0.00 0.05 0.00 79 1006.5
20170817162012 74 284 18.0 23.0 0.00 0.05 0.00 79 1006.6
20170817161904 74 298 17.0 23.0 0.00 0.05 0.00 80 1006.6
20170817161804 74 284 16.0 23.0 0.00 0.05 0.00 79 1006.6
20170817161702 74 288 13.0 23.0 0.00 0.05 0.00 81 1006.7
20170817161602 74 282 13.0 23.0 0.00 0.05 0.00 83 1006.6
20170817161500 74 277 14.0 23.0 0.00 0.05 0.00 81 1006.6
20170817161414 74 277 15.0 23.0 0.00 0.05 0.00 80 1006.6
20170817161317 74 279 15.0 23.0 0.00 0.05 0.00 81 1006.5
20170817161214 74 263 15.0 23.0 0.00 0.05 0.00 81 1006.6
20170817161109 74 289 14.0 21.0 0.00 0.05 0.00 80 1006.6
20170817161009 74 282 13.0 21.0 0.00 0.05 0.00 81 1006.6
20170817160901 74 271 14.0 24.0 0.00 0.05 0.00 83 1006.6
20170817160811 74 274 16.0 24.0 0.00 0.05 0.00 81 1006.6
20170817160707 73 251 16.0 24.0 0.00 0.05 0.00 80 1006.6
20170817160611 73 281 14.0 24.0 0.00 0.05 0.00 80 1006.6
20170817160510 73 279 14.0 24.0 0.00 0.05 0.00 82 1006.6
20170817160402 73 290 15.0 24.0 0.00 0.05 0.00 82 1006.5
20170817160301 73 295 17.0 24.0 0.00 0.05 0.00 81 1006.5
20170817160212 73 283 17.0 22.0 0.00 0.05 0.00 81 1006.5
20170817160110 73 275 16.0 22.0 0.00 0.05 0.00 81 1006.5
20170817160004 73 309 16.0 22.0 0.00 0.05 0.00 81 1006.5
20170817155910 73 283 15.0 24.0 0.00 0.05 0.00 84 1006.5
20170817155813 73 284 15.0 24.0 0.00 0.05 0.00 82 1006.5
20170817155711 73 275 16.0 24.0 0.00 0.05 0.00 82 1006.5
20170817155610 73 281 16.0 24.0 0.00 0.05 0.00 83 1006.6
20170817155509 73 279 14.0 24.0 0.00 0.05 0.00 83 1006.6
20170817155400 72 287 15.0 24.0 0.00 0.05 0.00 83 1006.6
20170817155300 72 259 17.0 24.0 0.00 0.05 0.00 82 1006.6
20170817155202 72 283 18.0 24.0 0.00 0.05 0.00 82 1006.6
20170817155101 72 287 18.0 24.0 0.00 0.05 0.00 82 1006.6
20170817155016 72 267 18.0 23.0 0.00 0.05 0.00 82 1006.5
20170817154906 72 278 17.0 23.0 0.00 0.05 0.00 82 1006.5
20170817154804 72 279 17.0 21.0 0.00 0.05 0.00 82 1006.6
20170817154704 72 286 16.0 21.0 0.00 0.05 0.00 82 1006.5
20170817154600 72 271 15.0 21.0 0.00 0.05 0.00 83 1006.5
20170817154502 72 294 15.0 21.0 0.00 0.05 0.00 83 1006.5
20170817154415 72 273 16.0 21.0 0.00 0.05 0.00 82 1006.5
20170817154314 72 272 17.0 21.0 0.00 0.05 0.00 82 1006.5
20170817154212 73 258 15.0 21.0 0.00 0.05 0.00 82 1006.5
20170817154108 73 271 15.0 21.0 0.00 0.05 0.00 84 1006.5
20170817154007 73 267 15.0 20.0 0.00 0.05 0.00 83 1006.4
20170817153900 72 277 15.0 20.0 0.00 0.05 0.00 83 1006.5
20170817153759 72 268 16.0 20.0 0.00 0.05 0.00 83 1006.5
20170817153716 72 251 15.0 20.0 0.00 0.05 0.00 83 1006.4
20170817153506 72 277 15.0 20.0 0.00 0.05 0.00 84 1006.4
20170817153416 72 252 14.0 20.0 0.00 0.05 0.00 84 1006.4
20170817153215 72 269 12.0 18.0 0.00 0.05 0.00 85 1006.4
20170817153111 72 261 12.0 18.0 0.00 0.05 0.00 86 1006.4
20170817153012 72 261 12.0 20.0 0.00 0.05 0.00 85 1006.5
20170817152904 71 266 12.0 20.0 0.00 0.05 0.00 86 1006.5
20170817152801 71 269 12.0 20.0 0.00 0.05 0.00 86 1006.5
20170817152659 71 275 12.0 21.0 0.00 0.05 0.00 87 1006.5
20170817152557 71 253 14.0 21.0 0.00 0.05 0.00 86 1006.5
20170817152516 71 281 14.0 21.0 0.00 0.05 0.00 85 1006.5
20170817152409 71 274 14.0 21.0 0.00 0.05 0.00 86 1006.5
20170817152313 71 259 14.0 21.0 0.00 0.05 0.00 86 1006.4
20170817152211 71 275 15.0 21.0 0.00 0.05 0.00 85 1006.5
20170817152108 71 273 15.0 21.0 0.00 0.05 0.00 85 1006.5
20170817152004 71 259 14.0 21.0 0.00 0.05 0.00 85 1006.4
20170817151914 71 263 14.0 21.0 0.00 0.05 0.00 85 1006.4
20170817151811 71 246 12.0 17.0 0.00 0.05 0.00 85 1006.4
20170817151709 71 269 11.0 16.0 0.00 0.05 0.00 87 1006.4
20170817151611 71 244 11.0 16.0 0.00 0.05 0.00 87 1006.5
20170817151510 71 264 11.0 18.0 0.00 0.05 0.00 86 1006.5
20170817151401 71 273 12.0 18.0 0.00 0.05 0.00 86 1006.5
20170817151300 71 284 11.0 18.0 0.00 0.05 0.00 86 1006.4
20170817151159 71 268 11.0 18.0 0.00 0.05 0.00 86 1006.4
20170817151117 71 254 11.0 18.0 0.00 0.05 0.00 87 1006.4
20170817150958 71 273 12.0 18.0 0.00 0.05 0.00 87 1006.4
20170817150911 71 286 13.0 18.0 0.00 0.05 0.00 86 1006.4
20170817150811 70 271 13.0 18.0 0.00 0.05 0.00 87 1006.4
20170817150709 70 264 12.0 18.0 0.00 0.05 0.00 86 1006.4
20170817150607 70 256 10.0 15.0 0.00 0.05 0.00 87 1006.4
20170817150506 70 273 9.0 21.0 0.00 0.05 0.00 87 1006.4
20170817150400 70 267 9.0 21.0 0.00 0.05 0.00 87 1006.4
20170817150259 70 258 10.0 21.0 0.00 0.05 0.00 87 1006.4
20170817150157 70 269 11.0 21.0 0.00 0.05 0.00 86 1006.4
20170817150116 70 276 12.0 21.0 0.00 0.05 0.00 86 1006.4
20170817150016 70 284 12.0 21.0 0.00 0.05 0.00 86 1006.4
20170817145904 70 271 12.0 21.0 0.00 0.05 0.00 86 1006.4
20170817145802 70 254 13.0 21.0 0.00 0.05 0.00 87 1006.4
20170817145701 70 274 13.0 21.0 0.00 0.05 0.00 86 1006.4
20170817145603 70 274 12.0 20.0 0.00 0.05 0.00 86 1006.4
20170817145501 70 266 14.0 20.0 0.00 0.05 0.00 87 1006.4
20170817145313 70 269 16.0 20.0 0.00 0.05 0.00 86 1006.3
20170817145212 70 269 14.0 20.0 0.00 0.05 0.00 86 1006.4
20170817145107 70 272 13.0 19.0 0.00 0.05 0.00 86 1006.3
20170817145007 70 282 14.0 20.0 0.00 0.05 0.00 87 1006.3
20170817144802 70 273 13.0 20.0 0.00 0.05 0.00 86 1006.4
20170817144658 70 271 13.0 20.0 0.00 0.05 0.00 86 1006.4
20170817144557 70 267 15.0 20.0 0.00 0.05 0.00 86 1006.4
20170817144515 70 268 16.0 20.0 0.00 0.05 0.00 86 1006.4
20170817144408 70 252 16.0 20.0 0.00 0.05 0.00 86 1006.4
20170817144302 70 262 14.0 20.0 0.00 0.05 0.00 86 1006.4
20170817144200 70 254 13.0 20.0 0.00 0.05 0.00 87 1006.4
20170817144100 70 273 12.0 20.0 0.00 0.05 0.00 87 1006.4
20170817144000 70 265 12.0 20.0 0.00 0.05 0.00 87 1006.3
20170817143910 70 258 11.0 20.0 0.00 0.05 0.00 88 1006.3
20170817143808 70 269 12.0 20.0 0.00 0.05 0.00 87 1006.3
20170817143708 70 269 14.0 20.0 0.00 0.05 0.00 87 1006.3
20170817143607 70 264 15.0 20.0 0.00 0.05 0.00 87 1006.3
20170817143506 70 272 15.0 20.0 0.00 0.05 0.00 87 1006.2
20170817143418 70 272 13.0 20.0 0.00 0.05 0.00 87 1006.2
20170817143315 70 278 12.0 20.0 0.00 0.05 0.00 87 1006.2
20170817143213 70 290 11.0 20.0 0.00 0.05 0.00 88 1006.2
20170817143112 70 259 13.0 20.0 0.00 0.05 0.00 87 1006.2
20170817143011 70 257 13.0 20.0 0.00 0.05 0.00 87 1006.1
20170817142906 70 283 13.0 20.0 0.00 0.05 0.00 87 1006.1
20170817142808 70 266 14.0 21.0 0.00 0.05 0.00 86 1006.1
20170817142709 70 277 14.0 21.0 0.00 0.05 0.00 86 1006.1
20170817142609 70 263 13.0 21.0 0.00 0.05 0.00 86 1006.1
20170817142508 70 261 12.0 21.0 0.00 0.05 0.00 88 1006.1
20170817142402 70 281 12.0 21.0 0.00 0.05 0.00 87 1006.1
20170817142302 70 265 13.0 21.0 0.00 0.05 0.00 87 1006.1
20170817142200 70 264 13.0 21.0 0.00 0.05 0.00 87 1006.0
20170817142103 70 271 13.0 21.0 0.00 0.05 0.00 88 1006.0
20170817142017 70 275 14.0 21.0 0.00 0.05 0.00 87 1006.0
20170817141909 70 263 13.0 19.0 0.00 0.05 0.00 87 1005.9
20170817141800 70 275 14.0 20.0 0.00 0.05 0.00 88 1006.0
20170817141659 70 267 14.0 20.0 0.00 0.05 0.00 87 1006.0
20170817141616 70 250 14.0 20.0 0.00 0.05 0.00 88 1005.9
20170817141515 70 287 13.0 20.0 0.00 0.05 0.00 88 1005.9
20170817141410 70 258 13.0 20.0 0.00 0.05 0.00 88 1005.9
20170817141310 70 258 12.0 20.0 0.00 0.05 0.00 88 1005.9
20170817141208 70 251 13.0 20.0 0.00 0.05 0.00 88 1005.9
20170817141109 70 265 13.0 20.0 0.00 0.05 0.00 88 1005.9
20170817141008 70 273 12.0 20.0 0.00 0.05 0.00 88 1005.9
20170817140859 70 292 10.0 19.0 0.00 0.05 0.00 89 1005.9
20170817140818 70 257 10.0 19.0 0.00 0.05 0.00 89 1005.9
20170817140700 70 269 12.0 19.0 0.00 0.05 0.00 89 1006.0
20170817140619 70 269 13.0 19.0 0.00 0.05 0.00 88 1006.0
20170817140516 70 276 14.0 19.0 0.00 0.05 0.00 88 1006.0
20170817140407 70 269 14.0 19.0 0.00 0.05 0.00 88 1006.0
20170817140306 70 275 13.0 19.0 0.00 0.05 0.00 88 1006.0
20170817140206 70 244 13.0 19.0 0.00 0.05 0.00 89 1006.0
20170817140103 69 263 13.0 17.0 0.00 0.05 0.00 89 1006.0
20170817140003 69 257 13.0 17.0 0.00 0.05 0.00 89 1006.0
20170817135917 69 257 12.0 16.0 0.00 0.05 0.00 89 1006.0
20170817135817 69 265 12.0 16.0 0.00 0.05 0.00 90 1006.0
20170817135716 69 267 12.0 16.0 0.00 0.05 0.00 90 1006.1
20170817135614 69 250 11.0 15.0 0.00 0.05 0.00 90 1006.1
20170817135515 69 269 10.0 14.0 0.00 0.05 0.00 91 1006.1
20170817135408 69 265 10.0 14.0 0.00 0.05 0.00 91 1006.1
20170817135310 69 234 10.0 14.0 0.00 0.05 0.00 91 1006.1
20170817135207 69 265 10.0 16.0 0.00 0.05 0.00 91 1006.2
20170817135106 69 277 9.0 16.0 0.00 0.05 0.00 92 1006.1
20170817134859 68 247 10.0 19.0 0.00 0.05 0.00 92 1006.2
20170817134817 68 260 11.0 19.0 0.00 0.05 0.00 92 1006.2
20170817134658 68 244 10.0 19.0 0.00 0.05 0.00 92 1006.2
20170817134615 68 242 11.0 19.0 0.00 0.05 0.00 92 1006.3
20170817134511 68 264 12.0 19.0 0.00 0.05 0.00 92 1006.3
20170817134302 68 265 13.0 19.0 0.00 0.05 0.00 91 1006.3
20170817134201 68 257 13.0 19.0 0.00 0.05 0.00 91 1006.3
20170817134059 68 259 11.0 18.0 0.00 0.05 0.00 92 1006.3
20170817134003 68 245 12.0 18.0 0.00 0.05 0.00 92 1006.3
20170817133913 68 247 11.0 18.0 0.00 0.05 0.00 92 1006.4
20170817133813 68 229 10.0 18.0 0.00 0.05 0.00 92 1006.4
20170817133711 68 240 11.0 18.0 0.00 0.05 0.00 92 1006.4
20170817133611 68 222 13.0 18.0 0.00 0.05 0.00 92 1006.4
20170817133522 68 266 14.0 18.0 0.00 0.05 0.00 92 1006.3
20170817133406 68 245 13.0 18.0 0.00 0.05 0.00 92 1006.3
20170817133301 68 259 11.0 16.0 0.00 0.05 0.00 93 1006.4
20170817133204 68 254 12.0 16.0 0.00 0.05 0.00 93 1006.4
20170817133101 68 265 12.0 16.0 0.00 0.05 0.00 93 1006.3
20170817133000 67 233 12.0 16.0 0.00 0.05 0.00 93 1006.4
20170817132912 67 246 11.0 16.0 0.00 0.05 0.00 93 1006.4
20170817132708 67 238 11.0 16.0 0.00 0.05 0.00 93 1006.4
20170817132607 67 256 11.0 16.0 0.00 0.05 0.00 94 1006.3
20170817132511 67 238 11.0 16.0 0.00 0.05 0.00 94 1006.4
20170817132405 67 217 9.0 14.0 0.00 0.05 0.00 94 1006.4
20170817132304 67 240 9.0 14.0 0.00 0.05 0.00 94 1006.4
20170817132201 67 232 9.0 14.0 0.00 0.05 0.00 94 1006.4
20170817132058 67 248 9.0 15.0 0.00 0.05 0.00 94 1006.4
20170817132016 67 227 10.0 15.0 0.00 0.05 0.00 94 1006.4
20170817131910 67 252 11.0 16.0 0.00 0.05 0.00 94 1006.4
20170817131813 67 242 11.0 16.0 0.00 0.05 0.00 94 1006.4
20170817131709 67 243 11.0 16.0 0.00 0.05 0.00 94 1006.4
20170817131607 67 255 10.0 16.0 0.00 0.05 0.00 94 1006.4
20170817131505 67 261 10.0 16.0 0.00 0.05 0.00 94 1006.4
20170817131417 67 242 10.0 16.0 0.00 0.05 0.00 94 1006.5
20170817131316 67 250 12.0 17.0 0.00 0.05 0.00 94 1006.5
20170817131213 67 249 12.0 17.0 0.00 0.05 0.00 94 1006.5
20170817131111 67 242 12.0 17.0 0.00 0.05 0.00 94 1006.5
20170817131009 67 234 11.0 17.0 0.00 0.05 0.00 94 1006.5
20170817130901 67 240 11.0 17.0 0.00 0.05 0.00 94 1006.5
20170817130800 67 255 11.0 17.0 0.00 0.05 0.00 94 1006.4
20170817130659 67 246 12.0 17.0 0.00 0.05 0.00 94 1006.5
20170817130458 67 244 11.0 17.0 0.00 0.05 0.00 93 1006.4
20170817130410 67 240 11.0 17.0 0.00 0.05 0.00 93 1006.4
20170817130305 67 243 12.0 17.0 0.00 0.05 0.00 93 1006.4
20170817130204 67 229 12.0 17.0 0.00 0.05 0.00 93 1006.5
20170817130104 67 234 12.0 17.0 0.00 0.05 0.00 93 1006.4
20170817125810 67 261 12.0 17.0 0.00 0.05 0.00 93 1006.4
20170817125712 67 272 11.0 16.0 0.00 0.05 0.00 93 1006.5
20170817125611 67 237 10.0 14.0 0.00 0.05 0.00 93 1006.5
20170817125510 67 258 10.0 14.0 0.00 0.05 0.00 93 1006.5
20170817125300 67 260 11.0 14.0 0.00 0.05 0.00 93 1006.4
20170817125216 67 249 11.0 14.0 0.00 0.05 0.00 93 1006.4
20170817125115 67 258 11.0 14.0 0.00 0.05 0.00 93 1006.4
20170817124958 67 271 10.0 14.0 0.00 0.05 0.00 93 1006.4
20170817124911 67 238 10.0 14.0 0.00 0.05 0.00 93 1006.4
20170817124806 67 263 10.0 15.0 0.00 0.05 0.00 93 1006.4
20170817124705 67 248 10.0 15.0 0.00 0.05 0.00 93 1006.4
20170817124604 67 261 10.0 15.0 0.00 0.05 0.00 93 1006.5
20170817124501 67 230 10.0 15.0 0.00 0.05 0.00 93 1006.4
20170817124414 67 241 10.0 15.0 0.00 0.05 0.00 93 1006.4
20170817124315 67 236 10.0 15.0 0.00 0.05 0.00 93 1006.4
20170817124208 67 254 11.0 15.0 0.00 0.05 0.00 93 1006.4
20170817124107 67 231 12.0 16.0 0.00 0.05 0.00 93 1006.3
20170817124006 67 234 12.0 16.0 0.00 0.05 0.00 93 1006.3
20170817123859 67 247 11.0 16.0 0.00 0.05 0.00 93 1006.3
20170817123816 67 249 11.0 16.0 0.00 0.05 0.00 93 1006.4
20170817123616 67 246 10.0 16.0 0.00 0.05 0.00 93 1006.3
20170817123513 67 251 12.0 16.0 0.00 0.05 0.00 93 1006.3
20170817123418 67 259 12.0 16.0 0.00 0.05 0.00 93 1006.3
20170817123314 67 264 12.0 17.0 0.00 0.05 0.00 93 1006.2
20170817123213 67 248 10.0 17.0 0.00 0.05 0.00 93 1006.2
20170817123113 67 244 10.0 17.0 0.00 0.05 0.00 93 1006.2
20170817123010 67 248 11.0 17.0 0.00 0.05 0.00 93 1006.2
20170817122909 67 258 12.0 17.0 0.00 0.05 0.00 93 1006.2
20170817122807 67 241 11.0 17.0 0.00 0.05 0.00 93 1006.2
20170817122701 67 232 11.0 17.0 0.00 0.05 0.00 93 1006.2
20170817122600 67 242 12.0 17.0 0.00 0.05 0.00 93 1006.2
20170817122410 67 272 11.0 16.0 0.00 0.05 0.00 93 1006.2
20170817122308 67 267 10.0 16.0 0.00 0.05 0.00 93 1006.2
20170817122209 67 238 11.0 16.0 0.00 0.05 0.00 93 1006.1
20170817122106 67 248 12.0 16.0 0.00 0.05 0.00 93 1006.1
20170817122002 67 247 12.0 15.0 0.00 0.05 0.00 93 1006.1
20170817121809 67 259 10.0 14.0 0.00 0.05 0.00 93 1006.2
20170817121706 67 261 10.0 14.0 0.00 0.05 0.00 93 1006.1
20170817121602 67 245 10.0 14.0 0.00 0.05 0.00 93 1006.1
20170817121506 67 228 10.0 14.0 0.00 0.05 0.00 93 1006.1
20170817121416 67 259 10.0 14.0 0.00 0.05 0.00 93 1006.1
20170817121315 67 234 10.0 14.0 0.00 0.05 0.00 93 1006.1
20170817121215 67 223 9.0 13.0 0.00 0.05 0.00 93 1006.1
20170817121114 67 247 9.0 13.0 0.00 0.05 0.00 93 1006.1
20170817121007 67 261 9.0 13.0 0.00 0.05 0.00 93 1006.1
20170817120900 67 252 9.0 13.0 0.00 0.05 0.00 93 1006.1
20170817120723 66 267 10.0 14.0 0.00 0.05 0.00 93 1006.0
20170817120626 67 246 10.0 14.0 0.00 0.05 0.00 93 1006.0
20170817120516 66 236 10.0 14.0 0.00 0.05 0.00 93 1006.0
20170817120410 66 250 10.0 14.0 0.00 0.05 0.00 93 1006.0
20170817120309 66 259 10.0 14.0 0.00 0.05 0.00 93 1006.0
20170817120208 66 242 10.0 14.0 0.00 0.05 0.00 93 1005.9
20170817120107 66 235 11.0 14.0 0.00 0.05 0.00 94 1005.9
20170817120011 66 250 9.0 14.0 0.00 0.05 0.00 94 1005.9
20170817115906 66 257 8.0 14.0 0.00 0.05 0.00 94 1005.9
20170817115805 66 261 8.0 14.0 0.00 0.05 0.00 94 1005.9
20170817115700 66 247 9.0 14.0 0.00 0.05 0.00 94 1005.9
20170817115600 66 272 9.0 14.0 0.00 0.05 0.00 94 1005.8
20170817115501 66 250 8.0 14.0 0.00 0.05 0.00 94 1005.8
20170817115359 66 247 10.0 14.0 0.00 0.05 0.00 94 1005.8
20170817115259 66 254 10.0 14.0 0.00 0.05 0.00 94 1005.8
20170817115159 66 249 9.0 14.0 0.00 0.05 0.00 93 1005.7
20170817115059 66 234 9.0 13.0 0.00 0.05 0.00 93 1005.8
20170817114907 66 232 8.0 13.0 0.00 0.05 0.00 93 1005.8
20170817114804 66 244 9.0 13.0 0.00 0.05 0.00 93 1005.8
20170817114704 66 236 9.0 13.0 0.00 0.05 0.00 93 1005.8
20170817114601 66 264 10.0 13.0 0.00 0.05 0.00 94 1005.8
20170817114501 66 238 9.0 13.0 0.00 0.05 0.00 94 1005.8
20170817114412 66 246 9.0 13.0 0.00 0.05 0.00 94 1005.7
20170817114211 66 244 10.0 13.0 0.00 0.05 0.00 94 1005.8
20170817114108 66 236 8.0 13.0 0.00 0.05 0.00 94 1005.7
20170817114011 66 245 7.0 13.0 0.00 0.05 0.00 94 1005.7
20170817113859 66 260 7.0 13.0 0.00 0.05 0.00 94 1005.7
20170817113757 66 247 7.0 13.0 0.00 0.05 0.00 94 1005.7
20170817113717 66 253 8.0 13.0 0.00 0.05 0.00 94 1005.7
20170817113615 66 250 8.0 13.0 0.00 0.05 0.00 94 1005.7
20170817113516 66 234 8.0 13.0 0.00 0.05 0.00 94 1005.7
20170817113405 66 250 7.0 11.0 0.00 0.05 0.00 94 1005.7
20170817113316 66 263 8.0 11.0 0.00 0.05 0.00 94 1005.8
20170817113214 66 259 8.0 11.0 0.00 0.05 0.00 94 1005.7
20170817113114 66 248 8.0 11.0 0.00 0.05 0.00 94 1005.7
20170817113029 66 236 7.0 11.0 0.00 0.05 0.00 94 1005.7
20170817112814 66 247 6.0 11.0 0.00 0.05 0.00 94 1005.7
20170817112714 66 246 6.0 11.0 0.00 0.05 0.00 93 1005.7
20170817112604 66 257 6.0 11.0 0.00 0.05 0.00 93 1005.7
20170817112501 66 265 7.0 11.0 0.00 0.05 0.00 93 1005.8
20170817112416 66 263 7.0 11.0 0.00 0.05 0.00 93 1005.7
20170817112314 66 242 7.0 11.0 0.00 0.05 0.00 93 1005.7
20170817112215 66 247 7.0 11.0 0.00 0.05 0.00 93 1005.7
20170817112115 66 259 8.0 13.0 0.00 0.05 0.00 93 1005.7
20170817112013 66 253 8.0 13.0 0.00 0.05 0.00 93 1005.7
20170817111908 66 244 7.0 13.0 0.00 0.05 0.00 93 1005.7
20170817111811 66 269 6.0 13.0 0.00 0.05 0.00 93 1005.6
20170817111711 66 264 6.0 13.0 0.00 0.05 0.00 93 1005.6
20170817111612 66 254 7.0 13.0 0.00 0.05 0.00 93 1005.6
20170817111509 66 254 8.0 13.0 0.00 0.05 0.00 93 1005.6
20170817111403 66 259 9.0 13.0 0.00 0.05 0.00 93 1005.5
20170817111300 66 254 9.0 13.0 0.00 0.05 0.00 93 1005.5
20170817111201 66 254 9.0 12.0 0.00 0.05 0.00 93 1005.6
20170817111101 66 267 9.0 12.0 0.00 0.05 0.00 93 1005.6
20170817111000 66 264 9.0 12.0 0.00 0.05 0.00 93 1005.6
20170817110914 66 271 8.0 14.0 0.00 0.05 0.00 93 1005.6
20170817110812 66 241 8.0 14.0 0.00 0.05 0.00 93 1005.5
20170817110712 66 244 8.0 14.0 0.00 0.05 0.00 93 1005.6
20170817110600 66 244 8.0 14.0 0.00 0.05 0.00 92 1005.5
20170817110501 67 257 9.0 14.0 0.00 0.05 0.00 92 1005.5
20170817110414 67 253 9.0 14.0 0.00 0.05 0.00 92 1005.4
20170817110312 67 257 9.0 14.0 0.00 0.05 0.00 92 1005.4
20170817110210 67 227 9.0 14.0 0.00 0.05 0.00 92 1005.4
20170817110109 67 258 10.0 14.0 0.00 0.05 0.00 92 1005.4
20170817110008 67 215 10.0 14.0 0.00 0.05 0.00 92 1005.4
20170817105902 67 241 10.0 15.0 0.00 0.05 0.00 92 1005.4
20170817105804 67 232 9.0 15.0 0.00 0.05 0.00 92 1005.4
20170817105702 67 246 9.0 15.0 0.00 0.05 0.00 92 1005.4
20170817105601 67 234 10.0 15.0 0.00 0.05 0.00 92 1005.4
20170817105459 67 240 10.0 15.0 0.00 0.05 0.00 92 1005.4
20170817105413 67 242 10.0 15.0 0.00 0.05 0.00 92 1005.4
20170817105311 67 225 11.0 15.0 0.00 0.05 0.00 92 1005.4
20170817105210 67 228 10.0 15.0 0.00 0.05 0.00 92 1005.4
20170817105113 67 230 9.0 16.0 0.00 0.05 0.00 93 1005.4
20170817105009 67 246 8.0 16.0 0.00 0.05 0.00 93 1005.4
20170817104902 67 242 9.0 17.0 0.00 0.05 0.00 93 1005.4
20170817104801 67 238 9.0 17.0 0.00 0.05 0.00 93 1005.4
20170817104716 67 240 9.0 17.0 0.00 0.05 0.00 93 1005.4
20170817104516 67 244 10.0 17.0 0.00 0.05 0.00 92 1005.4
20170817104412 67 226 11.0 17.0 0.00 0.05 0.00 92 1005.3
20170817104305 67 243 12.0 17.0 0.00 0.05 0.00 93 1005.4
20170817104201 67 236 12.0 17.0 0.00 0.05 0.00 93 1005.4
20170817104117 67 268 12.0 17.0 0.00 0.05 0.00 93 1005.4
20170817104011 67 255 11.0 16.0 0.00 0.05 0.00 93 1005.4
20170817103902 67 221 10.0 13.0 0.00 0.05 0.00 93 1005.4
20170817103802 67 211 10.0 13.0 0.00 0.05 0.00 93 1005.4
20170817103702 67 243 9.0 13.0 0.00 0.05 0.00 93 1005.5
20170817103558 67 246 9.0 13.0 0.00 0.05 0.00 93 1005.5
20170817103517 67 245 9.0 13.0 0.00 0.05 0.00 93 1005.5
20170817103408 67 254 8.0 13.0 0.00 0.05 0.00 93 1005.4
20170817103317 67 230 8.0 14.0 0.00 0.05 0.00 93 1005.4
20170817103215 67 238 8.0 14.0 0.00 0.05 0.00 93 1005.4
20170817103114 67 253 9.0 16.0 0.00 0.05 0.00 93 1005.4
20170817103012 67 252 10.0 16.0 0.00 0.05 0.00 93 1005.3
20170817102909 67 235 10.0 16.0 0.00 0.05 0.00 93 1005.3
20170817102804 67 242 9.0 16.0 0.00 0.05 0.00 93 1005.3
20170817102703 67 245 9.0 16.0 0.00 0.05 0.00 93 1005.4
20170817102602 67 240 9.0 16.0 0.00 0.05 0.00 93 1005.4
20170817102512 67 255 10.0 16.0 0.00 0.05 0.00 93 1005.4
20170817102403 67 249 11.0 16.0 0.00 0.05 0.00 93 1005.4
20170817102305 67 242 12.0 16.0 0.00 0.05 0.00 93 1005.4
20170817102101 67 251 11.0 14.0 0.00 0.05 0.00 93 1005.4
20170817102000 67 258 10.0 15.0 0.00 0.05 0.00 94 1005.4
20170817101913 67 251 10.0 15.0 0.00 0.05 0.00 94 1005.4
20170817101814 67 255 10.0 15.0 0.00 0.05 0.00 94 1005.4
20170817101713 67 246 10.0 15.0 0.00 0.05 0.00 94 1005.4
20170817101619 67 240 10.0 15.0 0.00 0.05 0.00 94 1005.4
20170817101518 67 215 10.0 15.0 0.00 0.05 0.00 94 1005.4
20170817101404 66 241 10.0 15.0 0.00 0.05 0.00 94 1005.4
20170817101303 66 231 9.0 15.0 0.00 0.05 0.00 94 1005.4
20170817101201 66 213 9.0 14.0 0.00 0.05 0.00 94 1005.4
20170817101057 66 219 9.0 14.0 0.00 0.05 0.00 94 1005.4
20170817100907 66 229 9.0 14.0 0.00 0.05 0.00 94 1005.4
20170817100808 66 225 10.0 14.0 0.00 0.05 0.00 94 1005.4
20170817100708 66 227 10.0 14.0 0.00 0.05 0.00 94 1005.4
20170817100607 66 225 10.0 14.0 0.00 0.05 0.00 94 1005.4
20170817100504 66 227 10.0 14.0 0.00 0.05 0.00 94 1005.4
20170817100414 66 237 9.0 14.0 0.00 0.05 0.00 94 1005.4
20170817100211 66 223 8.0 12.0 0.00 0.05 0.00 94 1005.3
20170817100115 66 232 9.0 12.0 0.00 0.05 0.00 94 1005.3
20170817100012 66 223 9.0 12.0 0.00 0.05 0.00 94 1005.3
20170817095907 66 220 9.0 12.0 0.00 0.05 0.00 94 1005.3
20170817095805 66 219 8.0 12.0 0.00 0.05 0.00 94 1005.2
20170817095705 66 227 8.0 11.0 0.00 0.05 0.00 94 1005.2
20170817095601 66 217 8.0 12.0 0.00 0.05 0.00 94 1005.3
20170817095502 66 223 8.0 11.0 0.00 0.05 0.00 94 1005.2
20170817095358 66 227 8.0 11.0 0.00 0.05 0.00 93 1005.2
20170817095259 66 221 8.0 11.0 0.00 0.05 0.00 93 1005.3
20170817095159 66 217 8.0 12.0 0.00 0.05 0.00 93 1005.2
20170817095059 66 219 8.0 12.0 0.00 0.05 0.00 93 1005.3
20170817094958 66 236 8.0 12.0 0.00 0.05 0.00 93 1005.2
20170817094812 66 217 8.0 12.0 0.00 0.05 0.00 93 1005.2
20170817094715 66 232 9.0 12.0 0.00 0.05 0.00 93 1005.2
20170817094616 66 216 8.0 12.0 0.00 0.05 0.00 93 1005.2
20170817094512 66 234 7.0 12.0 0.00 0.05 0.00 93 1005.2
20170817094404 66 225 8.0 12.0 0.00 0.05 0.00 93 1005.1
20170817094306 66 227 8.0 12.0 0.00 0.05 0.00 94 1005.1
20170817094204 66 225 8.0 12.0 0.00 0.05 0.00 94 1005.2
20170817094109 66 231 8.0 12.0 0.00 0.05 0.00 93 1005.2
20170817094007 67 211 8.0 12.0 0.00 0.05 0.00 93 1005.1
20170817093902 67 228 9.0 12.0 0.00 0.05 0.00 93 1005.2
20170817093800 67 234 9.0 12.0 0.00 0.05 0.00 93 1005.1
20170817093702 67 232 9.0 12.0 0.00 0.05 0.00 93 1005.1
20170817093603 67 232 9.0 12.0 0.00 0.05 0.00 93 1005.1
20170817093503 67 232 9.0 12.0 0.00 0.05 0.00 93 1005.1
20170817093416 67 215 9.0 13.0 0.00 0.05 0.00 93 1005.1
20170817093310 67 220 9.0 13.0 0.00 0.05 0.00 93 1005.1
20170817093206 67 214 9.0 13.0 0.00 0.05 0.00 93 1005.2
20170817093103 67 238 10.0 13.0 0.00 0.05 0.00 93 1005.2
20170817093004 67 227 9.0 13.0 0.00 0.05 0.00 93 1005.2
20170817092915 67 219 9.0 13.0 0.00 0.05 0.00 93 1005.0
20170817092812 67 221 10.0 13.0 0.00 0.05 0.00 93 1005.1
20170817092714 67 221 9.0 13.0 0.00 0.05 0.00 93 1005.1
20170817092613 67 217 9.0 12.0 0.00 0.05 0.00 93 1005.0
20170817092505 67 217 8.0 12.0 0.00 0.05 0.00 93 1005.0
20170817092417 67 223 9.0 12.0 0.00 0.05 0.00 93 1005.0
20170817092319 67 221 9.0 12.0 0.00 0.05 0.00 93 1005.0
20170817092159 67 228 9.0 10.0 0.00 0.05 0.00 93 1005.0
20170817092116 67 229 9.0 10.0 0.00 0.05 0.00 93 1005.0
20170817092025 67 219 9.0 10.0 0.00 0.05 0.00 93 1005.0
20170817091912 67 227 8.0 10.0 0.00 0.05 0.00 93 1005.0
20170817091813 67 217 8.0 11.0 0.00 0.05 0.00 93 1005.0
20170817091709 67 217 8.0 11.0 0.00 0.05 0.00 93 1005.1
20170817091609 67 222 8.0 11.0 0.00 0.05 0.00 93 1005.0
20170817091511 67 211 8.0 12.0 0.00 0.05 0.00 93 1005.1
20170817091421 67 221 8.0 12.0 0.00 0.05 0.00 93 1005.0
20170817091300 67 216 8.0 12.0 0.00 0.05 0.00 93 1005.1
20170817091158 67 233 8.0 12.0 0.00 0.05 0.00 93 1005.0
20170817091058 67 219 8.0 12.0 0.00 0.05 0.00 93 1005.0
20170817091017 67 240 8.0 12.0 0.00 0.05 0.00 93 1004.9
20170817090911 67 239 8.0 12.0 0.00 0.05 0.00 93 1005.0
20170817090810 67 242 7.0 12.0 0.00 0.05 0.00 93 1005.0
20170817090614 67 241 7.0 10.0 0.00 0.05 0.00 93 1004.9
20170817090515 67 230 7.0 10.0 0.00 0.05 0.00 93 1004.9
20170817090407 67 239 7.0 9.0 0.00 0.05 0.00 93 1004.9
20170817090307 67 238 7.0 9.0 0.00 0.05 0.00 93 1004.9
20170817090054 67 230 7.0 9.0 0.00 0.05 0.00 93 1004.8
20170817085812 67 209 6.0 8.0 0.00 0.05 0.00 93 1004.9
20170817085710 67 222 6.0 8.0 0.00 0.05 0.00 93 1004.9
20170817085610 67 222 7.0 10.0 0.00 0.05 0.00 93 1004.9
20170817085510 67 230 7.0 10.0 0.00 0.05 0.00 93 1004.9
20170817085402 67 227 7.0 10.0 0.00 0.05 0.00 93 1004.9
20170817085302 67 227 7.0 10.0 0.00 0.05 0.00 93 1004.9
20170817085217 67 225 6.0 10.0 0.00 0.05 0.00 93 1004.9
20170817085100 68 232 6.0 10.0 0.00 0.05 0.00 92 1004.9
20170817085000 68 234 7.0 10.0 0.00 0.05 0.00 92 1004.9
20170817084914 68 239 7.0 10.0 0.00 0.05 0.00 92 1004.9
20170817084814 68 242 7.0 10.0 0.00 0.05 0.00 92 1005.0
20170817084710 68 246 6.0 10.0 0.00 0.05 0.00 92 1005.0
20170817084606 68 221 7.0 10.0 0.00 0.05 0.00 92 1005.0
20170817084505 68 232 7.0 10.0 0.00 0.05 0.00 92 1005.0
20170817084404 68 249 7.0 10.0 0.00 0.05 0.00 92 1005.0
20170817084304 68 219 7.0 10.0 0.00 0.05 0.00 92 1004.9
20170817084202 68 238 7.0 10.0 0.00 0.05 0.00 92 1005.0
20170817084102 68 242 7.0 10.0 0.00 0.05 0.00 92 1005.0
20170817084000 68 263 7.0 12.0 0.00 0.05 0.00 92 1005.0
20170817083809 68 227 8.0 13.0 0.00 0.05 0.00 92 1005.0
20170817083712 68 254 8.0 13.0 0.00 0.05 0.00 91 1005.0
20170817083612 68 238 8.0 13.0 0.00 0.05 0.00 91 1005.0
20170817083515 68 244 8.0 13.0 0.00 0.05 0.00 91 1005.0
20170817083400 68 237 9.0 13.0 0.00 0.05 0.00 91 1005.0
20170817083259 68 223 9.0 13.0 0.00 0.05 0.00 91 1005.1
20170817083215 68 225 9.0 13.0 0.00 0.05 0.00 91 1005.1
20170817083110 68 232 9.0 13.0 0.00 0.05 0.00 91 1005.1
20170817083014 68 257 10.0 13.0 0.00 0.05 0.00 91 1005.2
20170817082908 68 242 9.0 12.0 0.00 0.05 0.00 91 1005.1
20170817082802 68 240 9.0 12.0 0.00 0.05 0.00 91 1005.1
20170817082701 68 221 9.0 12.0 0.00 0.05 0.00 91 1005.2
20170817082600 68 236 9.0 12.0 0.00 0.05 0.00 91 1005.2
20170817082514 68 231 9.0 12.0 0.00 0.05 0.00 91 1005.2
20170817082410 68 249 9.0 11.0 0.00 0.05 0.00 91 1005.2
20170817082313 68 218 9.0 11.0 0.00 0.05 0.00 91 1005.2
20170817082213 68 246 9.0 11.0 0.00 0.05 0.00 91 1005.2
20170817082114 68 240 9.0 11.0 0.00 0.05 0.00 91 1005.2
20170817082008 68 234 9.0 11.0 0.00 0.05 0.00 91 1005.3
20170817081903 68 239 8.0 11.0 0.00 0.05 0.00 91 1005.3
20170817081804 68 241 8.0 11.0 0.00 0.05 0.00 91 1005.2
20170817081705 68 245 8.0 11.0 0.00 0.05 0.00 91 1005.2
20170817081606 68 237 9.0 11.0 0.00 0.05 0.00 91 1005.2
20170817081503 69 235 9.0 12.0 0.00 0.05 0.00 91 1005.3
20170817081422 69 232 9.0 12.0 0.00 0.05 0.00 91 1005.3
20170817081316 69 246 8.0 12.0 0.00 0.05 0.00 91 1005.3
20170817081158 69 227 8.0 12.0 0.00 0.05 0.00 91 1005.3
20170817081116 69 236 8.0 12.0 0.00 0.05 0.00 91 1005.3
20170817081000 69 244 8.0 12.0 0.00 0.05 0.00 91 1005.3
20170817080913 69 232 8.0 12.0 0.00 0.05 0.00 91 1005.3
20170817080813 69 242 8.0 12.0 0.00 0.05 0.00 91 1005.3
20170817080713 69 240 8.0 12.0 0.00 0.05 0.00 91 1005.3
20170817080613 69 244 8.0 11.0 0.00 0.05 0.00 91 1005.4
20170817080513 69 233 8.0 11.0 0.00 0.05 0.00 91 1005.4
20170817080406 69 229 8.0 11.0 0.00 0.05 0.00 92 1005.3
20170817080308 69 232 7.0 11.0 0.00 0.05 0.00 92 1005.3
20170817080205 69 230 7.0 9.0 0.00 0.05 0.00 92 1005.4
20170817080104 69 241 7.0 10.0 0.00 0.05 0.00 92 1005.4
20170817080004 69 221 7.0 10.0 0.00 0.05 0.00 92 1005.4
20170817075913 69 249 6.0 10.0 0.00 0.05 0.00 92 1005.5
20170817075812 69 242 7.0 10.0 0.00 0.05 0.00 92 1005.5
20170817075709 69 235 7.0 10.0 0.00 0.05 0.00 92 1005.5
20170817075611 69 237 7.0 10.0 0.00 0.05 0.00 92 1005.5
20170817075511 69 245 6.0 10.0 0.00 0.05 0.00 92 1005.5
20170817075407 69 248 7.0 10.0 0.00 0.05 0.00 92 1005.6
20170817075305 69 243 7.0 10.0 0.00 0.05 0.00 92 1005.6
20170817075204 69 234 7.0 9.0 0.00 0.05 0.00 91 1005.5
20170817075101 69 229 7.0 9.0 0.00 0.05 0.00 91 1005.5
20170817075007 69 225 7.0 9.0 0.00 0.05 0.00 91 1005.6
20170817074902 69 241 6.0 10.0 0.00 0.05 0.00 91 1005.6
20170817074801 69 236 6.0 10.0 0.00 0.05 0.00 91 1005.6
20170817074701 69 252 6.0 10.0 0.00 0.05 0.00 91 1005.5
20170817074601 69 242 7.0 10.0 0.00 0.05 0.00 91 1005.5
20170817074458 69 242 7.0 10.0 0.00 0.05 0.00 91 1005.6
20170817074406 69 240 7.0 10.0 0.00 0.05 0.00 91 1005.6
20170817074300 69 224 7.0 11.0 0.00 0.05 0.00 91 1005.6
20170817074215 69 229 7.0 11.0 0.00 0.05 0.00 91 1005.6
20170817074106 69 239 7.0 11.0 0.00 0.05 0.00 91 1005.6
20170817074003 69 238 7.0 12.0 0.00 0.05 0.00 91 1005.7
20170817073917 69 240 7.0 12.0 0.00 0.05 0.00 91 1005.6
20170817073812 69 246 7.0 12.0 0.00 0.05 0.00 91 1005.6
20170817073712 69 232 7.0 12.0 0.00 0.05 0.00 91 1005.7
20170817073607 69 223 7.0 12.0 0.00 0.05 0.00 91 1005.7
20170817073507 69 233 7.0 12.0 0.00 0.05 0.00 91 1005.7
20170817073417 69 228 7.0 12.0 0.00 0.05 0.00 91 1005.8
20170817073314 69 246 7.0 12.0 0.00 0.05 0.00 91 1005.8
20170817073210 69 227 8.0 12.0 0.00 0.05 0.00 91 1005.8
20170817073107 69 243 7.0 12.0 0.00 0.05 0.00 91 1005.8
20170817073004 69 220 6.0 8.0 0.00 0.05 0.00 91 1005.8
20170817072912 69 234 6.0 8.0 0.00 0.05 0.00 91 1005.8
20170817072813 69 231 6.0 7.0 0.00 0.05 0.00 91 1005.8
20170817072711 69 232 6.0 7.0 0.00 0.05 0.00 91 1005.7
20170817072611 69 243 6.0 7.0 0.00 0.05 0.00 91 1005.8
20170817072510 69 232 6.0 8.0 0.00 0.05 0.00 91 1005.8
20170817072404 69 227 7.0 7.0 0.00 0.05 0.00 91 1005.8
20170817072313 69 230 7.0 8.0 0.00 0.05 0.00 91 1005.8
20170817072159 69 229 6.0 8.0 0.00 0.05 0.00 91 1005.9
20170817072102 69 225 6.0 9.0 0.00 0.05 0.00 91 1005.9
20170817071959 69 220 6.0 9.0 0.00 0.05 0.00 91 1005.9
20170817071914 69 225 5.0 9.0 0.00 0.05 0.00 91 1005.9
20170817071812 69 239 5.0 9.0 0.00 0.05 0.00 91 1005.9
20170817071711 69 228 6.0 9.0 0.00 0.05 0.00 91 1006.0
20170817071610 69 236 5.0 9.0 0.00 0.05 0.00 91 1005.9
20170817071509 70 237 6.0 9.0 0.00 0.05 0.00 91 1005.9
20170817071406 70 238 6.0 9.0 0.00 0.05 0.00 91 1005.9
20170817071300 70 232 6.0 9.0 0.00 0.05 0.00 91 1005.9
20170817071159 70 237 5.0 8.0 0.00 0.05 0.00 90 1006.0
20170817071112 70 236 5.0 7.0 0.00 0.05 0.00 90 1005.9
20170817071010 70 233 5.0 7.0 0.00 0.05 0.00 90 1005.9
20170817070901 70 232 5.0 7.0 0.00 0.05 0.00 90 1005.9
20170817070800 70 236 5.0 7.0 0.00 0.05 0.00 90 1005.9
20170817070601 70 240 4.0 7.0 0.00 0.05 0.00 90 1006.0
20170817070501 70 248 4.0 7.0 0.00 0.05 0.00 90 1005.9
20170817070414 70 242 5.0 7.0 0.00 0.05 0.00 89 1005.9
20170817070311 70 241 5.0 7.0 0.00 0.05 0.00 89 1006.0
20170817070211 70 244 5.0 8.0 0.00 0.05 0.00 89 1006.0
20170817070109 70 264 5.0 8.0 0.00 0.05 0.00 89 1006.0
20170817070012 70 256 5.0 11.0 0.00 0.05 0.00 89 1006.0
20170817065901 70 248 5.0 11.0 0.00 0.05 0.00 89 1006.0
20170817065801 70 259 5.0 11.0 0.00 0.05 0.00 89 1006.0
20170817065658 71 265 5.0 12.0 0.00 0.05 0.00 89 1006.0
20170817065558 71 265 5.0 12.0 0.00 0.05 0.00 88 1006.0
20170817065517 71 264 5.0 12.0 0.00 0.05 0.00 88 1006.0
20170817065408 71 257 6.0 12.0 0.00 0.05 0.00 88 1006.1
20170817065312 71 272 7.0 12.0 0.00 0.05 0.00 88 1006.1
20170817065210 71 267 7.0 12.0 0.00 0.05 0.00 88 1006.2
20170817065109 71 251 7.0 12.0 0.00 0.05 0.00 88 1006.2
20170817065008 71 266 8.0 12.0 0.00 0.05 0.00 88 1006.2
20170817064901 71 263 8.0 12.0 0.00 0.05 0.00 88 1006.2
20170817064801 71 263 8.0 12.0 0.00 0.05 0.00 88 1006.2
20170817064710 71 267 7.0 12.0 0.00 0.05 0.00 88 1006.2
20170817064611 71 267 7.0 12.0 0.00 0.05 0.00 89 1006.2
20170817064508 71 257 6.0 10.0 0.00 0.05 0.00 89 1006.2
20170817064401 71 258 6.0 10.0 0.00 0.05 0.00 89 1006.2
20170817064259 71 260 6.0 9.0 0.00 0.05 0.00 89 1006.2
20170817064158 71 270 5.0 8.0 0.00 0.05 0.00 89 1006.2
20170817064117 71 263 5.0 8.0 0.00 0.05 0.00 89 1006.2
20170817064001 71 260 6.0 8.0 0.00 0.05 0.00 89 1006.3
20170817063914 71 260 6.0 8.0 0.00 0.05 0.00 89 1006.3
20170817063813 71 255 5.0 8.0 0.00 0.05 0.00 89 1006.2
20170817063712 71 259 4.0 7.0 0.00 0.05 0.00 89 1006.2
20170817063609 71 257 4.0 7.0 0.00 0.05 0.00 89 1006.2
20170817063506 71 261 4.0 9.0 0.00 0.05 0.00 89 1006.2
20170817063400 72 267 5.0 9.0 0.00 0.05 0.00 89 1006.2
20170817063303 72 266 5.0 10.0 0.00 0.05 0.00 89 1006.2
20170817063221 72 269 5.0 10.0 0.00 0.05 0.00 89 1006.2
20170817063110 72 259 5.0 10.0 0.00 0.05 0.00 88 1006.2
20170817063004 72 259 5.0 10.0 0.00 0.05 0.00 88 1006.2
20170817062859 72 271 6.0 10.0 0.00 0.05 0.00 88 1006.2
20170817062758 72 261 6.0 10.0 0.00 0.05 0.00 88 1006.2
20170817062705 72 267 7.0 10.0 0.00 0.05 0.00 88 1006.2
20170817062601 72 261 8.0 10.0 0.00 0.05 0.00 88 1006.2
20170817062502 72 261 8.0 10.0 0.00 0.05 0.00 88 1006.2
20170817062405 72 269 7.0 10.0 0.00 0.05 0.00 88 1006.2
20170817062304 72 248 7.0 10.0 0.00 0.05 0.00 88 1006.2
20170817062202 72 263 7.0 10.0 0.00 0.05 0.00 88 1006.2
20170817062100 72 268 7.0 10.0 0.00 0.05 0.00 88 1006.1
20170817062001 72 252 6.0 10.0 0.00 0.05 0.00 88 1006.1
20170817061913 72 249 6.0 10.0 0.00 0.05 0.00 88 1006.1
20170817061812 72 254 7.0 10.0 0.00 0.05 0.00 88 1006.1
20170817061707 72 257 8.0 10.0 0.00 0.05 0.00 88 1006.0
20170817061606 72 253 7.0 10.0 0.00 0.05 0.00 88 1006.0
20170817061500 72 254 7.0 10.0 0.00 0.05 0.00 88 1006.0
20170817061413 72 248 7.0 10.0 0.00 0.05 0.00 88 1006.0
20170817061309 72 254 7.0 10.0 0.00 0.05 0.00 88 1006.0
20170817061209 72 233 7.0 10.0 0.00 0.05 0.00 88 1006.0
20170817061112 72 249 7.0 10.0 0.00 0.05 0.00 88 1006.0
20170817061009 72 255 7.0 10.0 0.00 0.05 0.00 88 1005.9
20170817060902 72 257 7.0 10.0 0.00 0.05 0.00 88 1005.9
20170817060804 72 250 7.0 11.0 0.00 0.05 0.00 88 1005.9
20170817060720 72 248 7.0 11.0 0.00 0.05 0.00 88 1005.9
20170817060613 72 238 7.0 13.0 0.00 0.05 0.00 88 1005.8
20170817060507 72 252 7.0 13.0 0.00 0.05 0.00 88 1005.9
20170817060259 73 250 8.0 13.0 0.00 0.05 0.00 87 1005.9
20170817060216 73 257 8.0 13.0 0.00 0.05 0.00 87 1005.9
20170817060111 73 246 8.0 14.0 0.00 0.05 0.00 87 1005.7
20170817055904 73 244 10.0 14.0 0.00 0.05 0.00 86 1005.7
20170817055703 73 255 10.0 14.0 0.00 0.05 0.00 86 1005.7
20170817055602 73 251 10.0 14.0 0.00 0.05 0.00 86 1005.7
20170817055458 73 254 9.0 14.0 0.00 0.05 0.00 86 1005.7
20170817055412 73 253 9.0 14.0 0.00 0.05 0.00 86 1005.7
20170817055312 73 250 9.0 14.0 0.00 0.05 0.00 86 1005.7
20170817055206 73 231 9.0 14.0 0.00 0.05 0.00 86 1005.7
20170817055005 73 234 8.0 15.0 0.00 0.05 0.00 87 1005.7
20170817054858 73 235 9.0 15.0 0.00 0.05 0.00 87 1005.7
20170817054817 73 254 10.0 15.0 0.00 0.05 0.00 87 1005.7
20170817054714 74 238 10.0 15.0 0.00 0.05 0.00 87 1005.7
20170817054612 73 243 9.0 15.0 0.00 0.05 0.00 87 1005.6
20170817054512 73 239 9.0 15.0 0.00 0.05 0.00 87 1005.6
20170817054405 74 246 9.0 15.0 0.00 0.05 0.00 87 1005.6
20170817054208 74 250 10.0 15.0 0.00 0.05 0.00 87 1005.6
20170817054105 74 223 10.0 15.0 0.00 0.05 0.00 87 1005.5
20170817054001 74 234 10.0 15.0 0.00 0.05 0.00 87 1005.5
20170817053916 74 239 11.0 15.0 0.00 0.05 0.00 87 1005.5
20170817053814 74 225 11.0 15.0 0.00 0.05 0.00 87 1005.5
20170817053714 74 258 11.0 15.0 0.00 0.05 0.00 88 1005.4
20170817053614 74 226 11.0 15.0 0.00 0.05 0.00 88 1005.5
20170817053513 74 209 11.0 15.0 0.00 0.05 0.00 88 1005.5
20170817053403 74 229 10.0 13.0 0.00 0.05 0.00 88 1005.5
20170817053259 74 234 9.0 13.0 0.00 0.05 0.00 89 1005.5
20170817053219 74 219 9.0 13.0 0.00 0.05 0.00 89 1005.4
20170817053030 74 221 8.0 13.0 0.00 0.05 0.00 89 1005.4
20170817052901 74 215 8.0 13.0 0.00 0.05 0.00 89 1005.4
20170817052804 74 209 8.0 13.0 0.00 0.05 0.00 89 1005.3
20170817052717 74 202 9.0 13.0 0.00 0.05 0.00 89 1005.3
20170817052616 74 212 9.0 13.0 0.00 0.05 0.00 89 1005.3
20170817052512 74 234 8.0 13.0 0.00 0.05 0.00 89 1005.3
20170817052405 74 217 8.0 13.0 0.00 0.05 0.00 89 1005.3
20170817052300 74 216 8.0 13.0 0.00 0.05 0.00 89 1005.3
20170817052159 74 186 8.0 13.0 0.00 0.05 0.00 89 1005.2
20170817052100 74 217 8.0 13.0 0.00 0.05 0.00 89 1005.2
20170817052000 74 205 8.0 13.0 0.00 0.05 0.00 89 1005.2
20170817051910 74 212 8.0 13.0 0.00 0.05 0.00 88 1005.2
20170817051809 74 213 9.0 13.0 0.00 0.05 0.00 88 1005.1
20170817051708 74 196 9.0 13.0 0.00 0.05 0.00 88 1005.0
20170817051606 74 217 9.0 13.0 0.00 0.05 0.00 88 1005.0
20170817051503 74 216 9.0 13.0 0.00 0.05 0.00 89 1005.0
20170817051259 74 212 10.0 13.0 0.00 0.05 0.00 89 1005.0
20170817051215 74 217 9.0 13.0 0.00 0.05 0.00 90 1005.0
20170817051110 74 213 8.0 12.0 0.00 0.05 0.00 90 1005.0
20170817051009 74 224 8.0 12.0 0.00 0.05 0.00 91 1005.0
20170817050904 74 234 9.0 12.0 0.00 0.05 0.00 91 1005.0
20170817050803 74 210 8.0 12.0 0.00 0.05 0.00 91 1005.0
20170817050705 74 216 8.0 12.0 0.00 0.05 0.00 91 1005.0
20170817050605 74 196 9.0 12.0 0.00 0.05 0.00 91 1005.0
20170817050504 74 213 9.0 12.0 0.00 0.05 0.00 91 1005.0
20170817050412 74 202 9.0 12.0 0.00 0.05 0.00 91 1005.0
20170817050311 74 207 8.0 11.0 0.00 0.05 0.00 91 1004.9
20170817050207 75 205 8.0 12.0 0.00 0.05 0.00 91 1005.0
20170817050106 75 206 8.0 12.0 0.00 0.05 0.00 91 1005.0
20170817045922 75 198 8.0 12.0 0.00 0.05 0.00 91 1004.9
20170817045806 75 209 8.0 12.0 0.00 0.05 0.05 91 1004.9
20170817045706 75 211 9.0 12.0 0.00 0.05 0.05 91 1004.9
20170817045605 75 210 9.0 12.0 0.00 0.05 0.05 91 1005.0
20170817045513 75 178 9.0 12.0 0.00 0.05 0.05 91 1004.9
20170817045407 75 214 9.0 12.0 0.00 0.05 0.05 91 1004.9
20170817045305 75 215 8.0 12.0 0.00 0.05 0.05 91 1004.9
20170817045205 75 207 9.0 12.0 0.00 0.05 0.05 91 1004.9
20170817045101 75 212 9.0 14.0 0.00 0.05 0.05 90 1005.0
20170817045017 75 186 9.0 14.0 0.00 0.05 0.05 90 1005.0
20170817044909 75 200 9.0 14.0 0.00 0.05 0.05 90 1005.0
20170817044809 75 219 9.0 14.0 0.00 0.05 0.05 90 1005.0
20170817044708 75 211 10.0 14.0 0.00 0.05 0.05 90 1005.0
20170817044607 75 224 10.0 14.0 0.00 0.05 0.05 90 1005.0
20170817044504 75 207 10.0 14.0 0.00 0.05 0.05 90 1005.0
20170817044416 75 219 10.0 14.0 0.00 0.05 0.05 90 1005.0
20170817044313 75 211 10.0 14.0 0.00 0.05 0.05 90 1005.0
20170817044212 75 211 10.0 14.0 0.00 0.05 0.05 90 1005.0
20170817044106 75 218 10.0 13.0 0.00 0.05 0.05 90 1005.0
20170817044005 75 213 10.0 15.0 0.00 0.05 0.05 90 1005.0
20170817043917 75 217 10.0 16.0 0.00 0.05 0.05 90 1005.1
20170817043759 75 223 10.0 16.0 0.00 0.05 0.05 90 1005.1
20170817043713 75 212 10.0 16.0 0.00 0.05 0.05 90 1005.1
20170817043611 75 221 10.0 16.0 0.00 0.05 0.05 90 1005.0
20170817043506 75 215 10.0 16.0 0.00 0.05 0.05 90 1005.0
20170817043359 75 213 12.0 16.0 0.00 0.05 0.05 91 1005.0
20170817043259 75 213 11.0 16.0 0.00 0.05 0.05 91 1005.0
20170817043216 75 202 12.0 16.0 0.00 0.05 0.05 91 1005.0
20170817043117 75 217 11.0 13.0 0.00 0.05 0.05 91 1005.0
20170817043012 75 212 11.0 13.0 0.00 0.05 0.05 91 1005.0
20170817042901 75 214 10.0 13.0 0.00 0.05 0.05 92 1005.0
20170817042759 75 211 10.0 13.0 0.00 0.05 0.05 92 1004.9
20170817042717 75 238 10.0 13.0 0.00 0.05 0.05 92 1004.9
20170817042610 75 219 10.0 13.0 0.00 0.05 0.05 93 1005.0
20170817042510 75 218 10.0 13.0 0.00 0.05 0.05 93 1005.0
20170817042408 75 219 10.0 13.0 0.00 0.05 0.05 93 1005.0
20170817042307 74 202 9.0 13.0 0.00 0.05 0.05 93 1005.0
20170817042217 74 218 9.0 14.0 0.00 0.05 0.05 93 1005.0
20170817042114 74 213 9.0 12.0 0.00 0.05 0.05 93 1005.0
20170817042012 74 225 9.0 13.0 0.00 0.05 0.05 93 1005.1
20170817041905 74 217 8.0 11.0 0.00 0.05 0.05 94 1005.0
20170817041802 74 209 8.0 10.0 0.00 0.05 0.05 94 1005.0
20170817041706 74 211 8.0 10.0 0.00 0.05 0.05 94 1005.0
20170817041605 74 213 7.0 10.0 0.00 0.05 0.05 94 1005.1
20170817041504 74 209 7.0 9.0 0.00 0.05 0.05 94 1005.0
20170817041418 74 211 7.0 9.0 0.00 0.05 0.05 94 1005.0
20170817041313 74 202 7.0 9.0 0.00 0.05 0.05 94 1005.0
20170817041211 74 200 7.0 9.0 0.00 0.05 0.05 94 1005.0
20170817041110 74 199 7.0 9.0 0.00 0.05 0.05 94 1005.1
20170817041004 74 191 7.0 10.0 0.00 0.05 0.05 94 1005.0
20170817040916 74 195 7.0 10.0 0.00 0.05 0.05 94 1005.1
20170817040814 74 203 7.0 10.0 0.00 0.05 0.05 94 1005.2
20170817040708 74 199 7.0 10.0 0.00 0.05 0.05 94 1005.2
20170817040603 74 204 7.0 11.0 0.00 0.05 0.05 94 1005.2
20170817040500 74 194 7.0 11.0 0.00 0.05 0.05 94 1005.2
20170817040410 74 179 7.0 11.0 0.00 0.05 0.05 94 1005.2
20170817040308 74 192 8.0 11.0 0.00 0.05 0.05 94 1005.2
20170817040207 74 196 7.0 11.0 0.00 0.05 0.05 94 1005.2
20170817040110 74 198 7.0 11.0 0.00 0.05 0.05 94 1005.2
20170817040004 74 209 7.0 11.0 0.00 0.05 0.05 94 1005.2
20170817035916 74 157 7.0 11.0 0.00 0.05 0.05 94 1005.3
20170817035816 74 165 7.0 11.0 0.00 0.05 0.05 94 1005.2
20170817035710 74 161 7.0 9.0 0.00 0.05 0.05 94 1005.3
20170817035607 74 181 6.0 9.0 0.00 0.05 0.05 94 1005.2
20170817035507 74 153 6.0 9.0 0.00 0.05 0.05 94 1005.3
20170817035410 74 175 6.0 9.0 0.00 0.05 0.05 94 1005.3
20170817035308 74 178 7.0 9.0 0.00 0.05 0.05 94 1005.3
20170817035203 74 163 7.0 9.0 0.00 0.05 0.05 94 1005.4
20170817035103 74 163 7.0 9.0 0.00 0.05 0.05 94 1005.4
20170817035003 74 179 7.0 9.0 0.00 0.05 0.05 94 1005.4
20170817034912 74 175 7.0 9.0 0.00 0.05 0.05 94 1005.4
20170817034814 74 173 7.0 9.0 0.00 0.05 0.05 94 1005.4
20170817034714 74 169 7.0 9.0 0.00 0.05 0.05 94 1005.4
20170817034612 74 185 6.0 9.0 0.00 0.05 0.05 94 1005.4
20170817034511 74 188 6.0 9.0 0.00 0.05 0.05 93 1005.4
20170817034407 74 174 6.0 9.0 0.00 0.05 0.05 93 1005.4
20170817034301 74 180 6.0 9.0 0.00 0.05 0.05 93 1005.5
20170817034212 74 182 6.0 9.0 0.00 0.05 0.05 93 1005.4
20170817034114 74 178 6.0 9.0 0.00 0.05 0.05 93 1005.4
20170817034009 74 181 6.0 9.0 0.00 0.05 0.05 93 1005.4
20170817033858 74 188 6.0 10.0 0.00 0.05 0.05 93 1005.4
20170817033814 74 194 5.0 10.0 0.00 0.05 0.05 93 1005.4
20170817033605 74 169 6.0 11.0 0.00 0.05 0.05 93 1005.4
20170817033505 74 183 6.0 11.0 0.00 0.05 0.05 93 1005.5
20170817033401 74 172 7.0 11.0 0.00 0.05 0.05 93 1005.4
20170817033317 74 181 7.0 11.0 0.00 0.05 0.05 93 1005.4
20170817033215 74 178 7.0 11.0 0.00 0.05 0.05 93 1005.4
20170817033113 74 165 7.0 11.0 0.00 0.05 0.05 94 1005.5
20170817033007 74 151 8.0 11.0 0.00 0.05 0.05 94 1005.4
20170817032915 74 171 8.0 11.0 0.00 0.05 0.05 94 1005.4
20170817032810 74 165 8.0 11.0 0.00 0.05 0.05 94 1005.4
20170817032708 74 153 7.0 10.0 0.00 0.05 0.05 94 1005.4
20170817032608 74 172 7.0 10.0 0.00 0.05 0.05 94 1005.4
20170817032418 74 179 8.0 10.0 0.00 0.05 0.05 94 1005.5
20170817032313 74 166 7.0 10.0 0.00 0.05 0.05 94 1005.5
20170817032212 74 186 8.0 10.0 0.00 0.05 0.05 94 1005.5
20170817032109 74 178 8.0 10.0 0.00 0.05 0.05 94 1005.5
20170817032004 74 156 7.0 10.0 0.00 0.05 0.05 94 1005.5
20170817031902 74 171 7.0 9.0 0.00 0.05 0.05 94 1005.5
20170817031815 74 174 6.0 8.0 0.00 0.05 0.05 94 1005.5
20170817031715 74 169 6.0 8.0 0.00 0.05 0.05 94 1005.5
20170817031615 74 174 6.0 8.0 0.00 0.05 0.05 94 1005.4
20170817031509 74 158 6.0 8.0 0.00 0.05 0.05 94 1005.4
20170817031416 74 160 5.0 8.0 0.00 0.05 0.05 94 1005.4
20170817031312 74 155 5.0 8.0 0.00 0.05 0.05 94 1005.4
20170817031215 74 167 5.0 7.0 0.00 0.05 0.05 94 1005.4
20170817031110 74 167 5.0 7.0 0.00 0.05 0.05 94 1005.4
20170817031007 74 152 5.0 6.0 0.00 0.05 0.05 94 1005.3
20170817030900 74 153 5.0 6.0 0.00 0.05 0.05 94 1005.4
20170817030819 74 148 5.0 6.0 0.00 0.05 0.05 94 1005.4
20170817030715 74 153 5.0 7.0 0.00 0.05 0.05 93 1005.4
20170817030612 74 159 5.0 7.0 0.00 0.05 0.05 93 1005.4
20170817030507 74 161 5.0 7.0 0.00 0.05 0.05 93 1005.4
20170817030400 74 157 5.0 7.0 0.00 0.05 0.05 93 1005.4
20170817030315 74 165 5.0 7.0 0.00 0.05 0.05 93 1005.4
20170817030212 74 167 5.0 7.0 0.00 0.05 0.05 93 1005.4
20170817030110 74 164 5.0 7.0 0.00 0.05 0.05 93 1005.4
20170817030006 74 161 5.0 7.0 0.00 0.05 0.05 93 1005.4
20170817025917 74 155 5.0 7.0 0.00 0.05 0.05 93 1005.4
20170817025800 74 163 5.0 6.0 0.00 0.05 0.05 93 1005.5
20170817025612 74 166 4.0 6.0 0.00 0.05 0.05 93 1005.5
20170817025511 74 163 4.0 6.0 0.00 0.05 0.05 93 1005.5
20170817025404 74 161 4.0 6.0 0.00 0.05 0.05 93 1005.5
20170817025304 74 158 4.0 6.0 0.00 0.05 0.05 93 1005.5
20170817025203 74 159 3.0 6.0 0.00 0.05 0.05 93 1005.5
20170817025102 74 163 3.0 6.0 0.00 0.05 0.05 93 1005.5
20170817025001 74 164 4.0 6.0 0.00 0.05 0.05 93 1005.5
20170817024916 74 158 4.0 6.0 0.00 0.05 0.05 93 1005.5
20170817024814 74 163 4.0 6.0 0.00 0.05 0.05 93 1005.5
20170817024712 74 154 4.0 6.0 0.00 0.05 0.05 92 1005.5
20170817024608 74 141 4.0 6.0 0.00 0.05 0.05 92 1005.5
20170817024507 74 159 5.0 6.0 0.00 0.05 0.05 92 1005.5
20170817024301 74 149 4.0 6.0 0.00 0.05 0.05 92 1005.6
20170817024217 74 159 5.0 6.0 0.00 0.05 0.05 92 1005.6
20170817024113 74 161 5.0 6.0 0.00 0.05 0.05 92 1005.6
20170817024012 74 142 5.0 6.0 0.00 0.05 0.05 92 1005.6
20170817023906 74 148 5.0 6.0 0.00 0.05 0.05 92 1005.5
20170817023804 74 150 4.0 6.0 0.00 0.05 0.05 92 1005.5
20170817023705 75 153 4.0 6.0 0.00 0.05 0.05 92 1005.6
20170817023604 74 141 4.0 7.0 0.00 0.05 0.05 92 1005.6
20170817023503 75 142 4.0 7.0 0.00 0.05 0.05 92 1005.6
20170817023418 75 157 4.0 7.0 0.00 0.05 0.05 92 1005.6
20170817023317 75 172 5.0 7.0 0.00 0.05 0.05 92 1005.6
20170817023215 75 156 5.0 8.0 0.00 0.05 0.05 92 1005.7
20170817023112 75 174 4.0 8.0 0.00 0.05 0.05 92 1005.7
20170817023015 75 146 5.0 8.0 0.00 0.05 0.05 92 1005.7
20170817022920 75 154 5.0 8.0 0.00 0.05 0.05 92 1005.7
20170817022816 75 152 5.0 8.0 0.00 0.05 0.05 92 1005.7
20170817022713 75 168 5.0 8.0 0.00 0.05 0.05 92 1005.6
20170817022609 75 155 6.0 9.0 0.00 0.05 0.05 92 1005.7
20170817022507 75 171 6.0 9.0 0.00 0.05 0.05 92 1005.7
20170817022416 75 162 6.0 9.0 0.00 0.05 0.05 92 1005.7
20170817022311 75 152 6.0 9.0 0.00 0.05 0.05 92 1005.7
20170817022208 75 156 5.0 9.0 0.00 0.05 0.05 92 1005.7
20170817022106 75 158 6.0 9.0 0.00 0.05 0.05 92 1005.8
20170817022001 75 156 6.0 9.0 0.00 0.05 0.05 91 1005.7
20170817021910 75 146 7.0 9.0 0.00 0.05 0.05 92 1005.8
20170817021805 75 175 7.0 9.0 0.00 0.05 0.05 92 1005.8
20170817021601 75 157 6.0 8.0 0.00 0.05 0.05 91 1005.9
20170817021459 75 165 6.0 8.0 0.00 0.05 0.05 91 1005.9
20170817021411 75 149 6.0 8.0 0.00 0.05 0.05 91 1005.9
20170817021310 75 169 6.0 8.0 0.00 0.05 0.05 91 1005.9
20170817021206 75 165 6.0 7.0 0.00 0.05 0.05 91 1006.0
20170817021017 75 148 6.0 7.0 0.00 0.05 0.05 91 1006.0
20170817020905 75 157 5.0 7.0 0.00 0.05 0.05 91 1006.0
20170817020807 75 157 5.0 7.0 0.00 0.05 0.05 91 1005.9
20170817020703 75 168 5.0 7.0 0.00 0.05 0.05 91 1006.0
20170817020602 75 158 5.0 7.0 0.00 0.05 0.05 90 1006.0
20170817020459 75 179 5.0 6.0 0.00 0.05 0.05 90 1006.0
20170817020411 75 156 5.0 6.0 0.00 0.05 0.05 90 1006.0
20170817020307 75 169 5.0 6.0 0.00 0.05 0.05 90 1006.0
20170817020204 75 175 5.0 6.0 0.00 0.05 0.05 90 1006.0
20170817020104 75 159 5.0 6.0 0.00 0.05 0.05 90 1006.0
20170817020004 75 163 4.0 6.0 0.00 0.05 0.05 90 1006.0
20170817015917 75 159 4.0 6.0 0.00 0.05 0.05 90 1005.9
20170817015811 75 157 4.0 4.0 0.00 0.05 0.05 90 1006.0
20170817015705 75 164 4.0 4.0 0.00 0.05 0.05 90 1006.0
20170817015604 75 161 4.0 4.0 0.00 0.05 0.05 90 1006.0
20170817015501 76 153 4.0 4.0 0.00 0.05 0.05 89 1006.0
20170817015313 76 153 4.0 5.0 0.00 0.05 0.05 89 1006.0
20170817015213 76 157 4.0 5.0 0.00 0.05 0.05 89 1006.0
20170817015108 76 153 4.0 5.0 0.00 0.05 0.05 89 1006.0
20170817015004 76 155 4.0 7.0 0.00 0.05 0.05 89 1006.0
20170817014814 76 139 4.0 7.0 0.00 0.05 0.05 89 1006.0
20170817014715 76 153 4.0 7.0 0.00 0.05 0.05 88 1006.0
20170817014615 76 153 4.0 7.0 0.00 0.05 0.05 88 1006.0
20170817014516 76 163 4.0 7.0 0.00 0.05 0.05 88 1006.0
20170817014408 76 159 4.0 7.0 0.00 0.05 0.05 88 1006.0
20170817014305 76 161 4.0 7.0 0.00 0.05 0.05 88 1006.0
20170817014202 76 153 5.0 7.0 0.00 0.05 0.05 88 1006.0
20170817014116 76 164 4.0 7.0 0.00 0.05 0.05 88 1006.0
20170817013959 76 161 4.0 7.0 0.00 0.05 0.05 88 1006.0
20170817013913 76 157 4.0 7.0 0.00 0.05 0.05 88 1006.0
20170817013802 76 159 4.0 8.0 0.00 0.05 0.05 88 1006.0
20170817013718 76 164 4.0 8.0 0.00 0.05 0.05 88 1006.0
20170817013616 77 161 4.0 10.0 0.00 0.05 0.05 87 1006.0
20170817013514 77 138 5.0 10.0 0.00 0.05 0.05 87 1006.0
20170817013406 77 159 5.0 10.0 0.00 0.05 0.05 87 1006.0
20170817013304 77 155 6.0 10.0 0.00 0.05 0.05 87 1006.0
20170817013208 77 145 6.0 10.0 0.00 0.05 0.05 87 1006.0
20170817013106 77 148 6.0 10.0 0.00 0.05 0.05 87 1006.0
20170817013006 77 155 7.0 10.0 0.00 0.05 0.05 87 1006.0
20170817012911 77 157 8.0 10.0 0.00 0.05 0.05 87 1006.1
20170817012803 77 146 7.0 10.0 0.00 0.05 0.05 87 1006.1
20170817012718 77 159 6.0 10.0 0.00 0.05 0.05 87 1006.1
20170817012615 77 159 6.0 8.0 0.00 0.05 0.05 87 1006.1
20170817012516 77 158 6.0 8.0 0.00 0.05 0.05 87 1006.2
20170817012408 77 149 6.0 9.0 0.00 0.05 0.05 87 1006.1
20170817012305 77 160 5.0 8.0 0.00 0.05 0.05 87 1006.1
20170817012216 77 136 5.0 8.0 0.00 0.05 0.05 87 1006.1
20170817012110 77 139 5.0 8.0 0.00 0.05 0.05 87 1006.2
20170817012008 77 155 5.0 8.0 0.00 0.05 0.05 87 1006.2
20170817011915 77 153 6.0 8.0 0.00 0.05 0.05 87 1006.2
20170817011812 77 139 5.0 8.0 0.00 0.05 0.05 87 1006.2
20170817011714 77 156 5.0 8.0 0.00 0.05 0.05 87 1006.1
20170817011612 77 150 5.0 7.0 0.00 0.05 0.05 87 1006.1
20170817011512 77 154 5.0 7.0 0.00 0.05 0.05 87 1006.1
20170817011425 77 155 5.0 7.0 0.00 0.05 0.05 86 1006.1
20170817011312 77 153 5.0 7.0 0.00 0.05 0.05 86 1006.1
20170817011110 77 159 5.0 7.0 0.00 0.05 0.05 86 1006.1
20170817011014 77 159 5.0 7.0 0.00 0.05 0.05 86 1006.1
20170817010907 77 148 5.0 7.0 0.00 0.05 0.05 86 1006.1
20170817010805 77 140 5.0 7.0 0.00 0.05 0.05 86 1006.1
20170817010704 77 152 5.0 7.0 0.00 0.05 0.05 86 1006.1
20170817010600 77 146 5.0 7.0 0.00 0.05 0.05 86 1006.1
20170817010518 78 144 5.0 7.0 0.00 0.05 0.05 85 1006.1
20170817010410 78 157 5.0 7.0 0.00 0.05 0.05 85 1006.1
20170817010310 78 161 5.0 7.0 0.00 0.05 0.05 85 1006.1
20170817010205 78 165 5.0 7.0 0.00 0.05 0.05 85 1006.1
20170817010105 78 162 5.0 7.0 0.00 0.05 0.05 85 1006.0
20170817005914 78 140 5.0 8.0 0.00 0.05 0.05 85 1005.9
20170817005815 78 142 5.0 8.0 0.00 0.05 0.05 84 1005.9
20170817005713 78 153 5.0 8.0 0.00 0.05 0.05 84 1005.9
20170817005603 78 152 5.0 8.0 0.00 0.05 0.05 84 1005.9
20170817005507 78 146 4.0 8.0 0.00 0.05 0.05 84 1005.9
20170817005418 78 163 5.0 8.0 0.00 0.05 0.05 84 1005.9
20170817005301 78 165 5.0 8.0 0.00 0.05 0.05 84 1005.9
20170817005159 78 150 6.0 9.0 0.00 0.05 0.05 84 1005.9
20170817005115 78 160 6.0 9.0 0.00 0.05 0.05 83 1005.9
20170817005014 78 123 5.0 9.0 0.00 0.05 0.05 83 1005.8
20170817004906 78 153 5.0 9.0 0.00 0.05 0.05 83 1005.8
20170817004809 78 134 5.0 9.0 0.00 0.05 0.05 83 1005.8
20170817004706 79 144 6.0 10.0 0.00 0.05 0.05 83 1005.7
20170817004603 79 152 6.0 10.0 0.00 0.05 0.05 83 1005.7
20170817004459 79 186 7.0 10.0 0.00 0.05 0.05 83 1005.8
20170817004312 79 158 7.0 10.0 0.00 0.05 0.05 83 1005.9
20170817004110 79 156 6.0 10.0 0.00 0.05 0.05 83 1005.9
20170817004006 79 157 7.0 10.0 0.00 0.05 0.05 83 1005.9
20170817003859 79 142 6.0 10.0 0.00 0.05 0.05 83 1005.8
20170817003814 79 163 7.0 10.0 0.00 0.05 0.05 82 1005.8
20170817003714 79 155 7.0 10.0 0.00 0.05 0.05 82 1005.8
20170817003612 79 148 7.0 10.0 0.00 0.05 0.05 82 1005.8
20170817003511 79 170 7.0 10.0 0.00 0.05 0.05 82 1005.8
20170817003402 79 176 8.0 11.0 0.00 0.05 0.05 82 1005.8
20170817003301 79 167 8.0 11.0 0.00 0.05 0.05 82 1005.8
20170817003217 79 159 8.0 11.0 0.00 0.05 0.05 82 1005.8
20170817003113 79 195 8.0 11.0 0.00 0.05 0.05 82 1005.7
20170817003006 79 157 8.0 11.0 0.00 0.05 0.05 82 1005.8
20170817002913 80 153 7.0 11.0 0.00 0.05 0.05 82 1005.8
20170817002808 80 188 7.0 11.0 0.00 0.05 0.05 82 1005.8
20170817002701 80 145 7.0 11.0 0.00 0.05 0.05 81 1005.7
20170817002603 80 163 6.0 11.0 0.00 0.05 0.05 82 1005.8
20170817002501 80 160 6.0 10.0 0.00 0.05 0.05 81 1005.7
20170817002414 80 152 6.0 11.0 0.00 0.05 0.05 81 1005.7
20170817002314 80 153 6.0 11.0 0.00 0.05 0.05 81 1005.7
20170817002208 80 161 6.0 11.0 0.00 0.05 0.05 81 1005.6
20170817002101 80 161 6.0 11.0 0.00 0.05 0.05 81 1005.6
20170817002006 80 147 7.0 11.0 0.00 0.05 0.05 81 1005.6
20170817001900 80 165 7.0 11.0 0.00 0.05 0.05 80 1005.6
20170817001800 81 156 7.0 11.0 0.00 0.05 0.05 80 1005.6
20170817001718 81 160 7.0 11.0 0.00 0.05 0.05 80 1005.6
20170817001617 81 164 8.0 11.0 0.00 0.05 0.05 80 1005.5
20170817001513 81 167 7.0 10.0 0.00 0.05 0.05 79 1005.6
20170817001407 81 161 7.0 10.0 0.00 0.05 0.05 79 1005.6
20170817001303 81 171 7.0 10.0 0.00 0.05 0.05 79 1005.5
20170817001205 81 157 7.0 10.0 0.00 0.05 0.05 79 1005.5
20170817001102 81 163 7.0 10.0 0.00 0.05 0.05 79 1005.5
20170817001000 81 181 7.0 12.0 0.00 0.05 0.05 79 1005.5
20170817000914 81 168 8.0 12.0 0.00 0.05 0.05 79 1005.5
20170817000702 81 167 8.0 12.0 0.00 0.05 0.05 78 1005.4
20170817000608 81 164 8.0 12.0 0.00 0.05 0.05 79 1005.4
20170817000507 82 161 8.0 12.0 0.00 0.05 0.05 78 1005.4
20170817000415 82 176 8.0 12.0 0.00 0.05 0.05 78 1005.4
20170817000314 82 169 8.0 12.0 0.00 0.05 0.05 79 1005.4
20170817000213 82 160 9.0 12.0 0.00 0.05 0.05 78 1005.5
20170817000111 82 171 9.0 12.0 0.00 0.05 0.05 78 1005.4
20170817000009 82 161 8.0 12.0 0.00 0.05 0.05 78 1005.4
20170816235900 82 211 8.0 12.0 0.00 0.05 0.05 78 1005.4
20170816235817 82 166 8.0 12.0 0.00 0.05 0.05 78 1005.4
20170816235718 82 165 9.0 12.0 0.00 0.05 0.05 78 1005.4
20170816235614 82 163 9.0 12.0 0.00 0.05 0.05 78 1005.4
20170816235510 82 163 9.0 12.0 0.00 0.05 0.05 78 1005.4
20170816235402 82 157 9.0 13.0 0.00 0.05 0.05 78 1005.4
20170816235318 82 161 9.0 13.0 0.00 0.05 0.05 78 1005.4
20170816235208 82 169 10.0 14.0 0.00 0.05 0.05 78 1005.4
20170816235122 82 165 9.0 14.0 0.00 0.05 0.05 78 1005.4
20170816235040 82 187 9.0 14.0 0.00 0.05 0.05 78 1005.4
20170816234956 82 157 9.0 14.0 0.00 0.05 0.05 78 1005.4
20170816234411 82 159 11.0 14.0 0.00 0.05 0.05 78 1005.4
20170816234302 82 186 10.0 14.0 0.00 0.05 0.05 78 1005.4
20170816234159 82 180 10.0 14.0 0.00 0.05 0.05 78 1005.4
20170816234111 82 173 10.0 14.0 0.00 0.05 0.05 78 1005.4
20170816234009 82 155 9.0 15.0 0.00 0.05 0.05 79 1005.4
20170816233800 82 183 10.0 15.0 0.00 0.05 0.05 79 1005.4
20170816233713 82 194 10.0 15.0 0.00 0.05 0.05 79 1005.4
20170816233616 82 161 11.0 15.0 0.00 0.05 0.05 79 1005.4
20170816233512 82 147 9.0 15.0 0.00 0.05 0.05 79 1005.4
20170816233303 82 146 10.0 16.0 0.00 0.05 0.05 79 1005.5
20170816233218 82 196 10.0 16.0 0.00 0.05 0.05 79 1005.5
20170816233114 82 175 10.0 16.0 0.00 0.05 0.05 78 1005.5
20170816233014 82 189 9.0 16.0 0.00 0.05 0.05 78 1005.5
20170816232911 82 157 10.0 16.0 0.00 0.05 0.05 79 1005.5
20170816232803 82 163 11.0 16.0 0.00 0.05 0.05 79 1005.4
20170816232700 82 151 11.0 16.0 0.00 0.05 0.05 78 1005.4
20170816232616 82 158 10.0 14.0 0.00 0.05 0.05 79 1005.4
20170816232511 82 167 9.0 14.0 0.00 0.05 0.05 79 1005.4
20170816232303 82 178 10.0 15.0 0.00 0.05 0.05 78 1005.5
20170816232204 82 161 11.0 15.0 0.00 0.05 0.05 79 1005.5
20170816232118 82 169 11.0 16.0 0.00 0.05 0.05 79 1005.5
20170816232016 82 175 11.0 16.0 0.00 0.05 0.05 79 1005.5
20170816231909 82 156 11.0 18.0 0.00 0.05 0.05 79 1005.5
20170816231818 82 155 10.0 18.0 0.00 0.05 0.05 78 1005.5
20170816231715 82 159 11.0 18.0 0.00 0.05 0.05 79 1005.5
20170816231611 82 161 11.0 18.0 0.00 0.05 0.05 78 1005.5
20170816231508 82 152 10.0 18.0 0.00 0.05 0.05 78 1005.5
20170816231359 82 171 10.0 18.0 0.00 0.05 0.05 79 1005.5
20170816231316 82 157 11.0 18.0 0.00 0.05 0.05 79 1005.5
20170816231213 82 162 11.0 18.0 0.00 0.05 0.05 79 1005.5
20170816231108 82 174 12.0 18.0 0.00 0.05 0.05 80 1005.6
20170816231006 82 158 11.0 16.0 0.00 0.05 0.05 79 1005.7
20170816230859 82 163 11.0 16.0 0.00 0.05 0.05 79 1005.6
20170816230801 82 154 12.0 17.0 0.00 0.05 0.05 79 1005.7
20170816230659 82 161 11.0 17.0 0.00 0.05 0.05 79 1005.7
20170816230616 81 155 10.0 18.0 0.00 0.05 0.05 79 1005.8
20170816230514 81 175 9.0 19.0 0.00 0.05 0.05 80 1005.8
20170816230406 81 150 8.0 19.0 0.00 0.05 0.05 80 1005.8
20170816230304 81 161 9.0 19.0 0.00 0.05 0.05 80 1005.9
20170816230202 81 170 10.0 19.0 0.00 0.05 0.05 80 1005.9
20170816230103 81 176 10.0 19.0 0.00 0.05 0.05 79 1005.9
20170816230017 81 173 12.0 19.0 0.00 0.05 0.05 79 1006.0
20170816225909 81 168 14.0 20.0 0.00 0.05 0.05 79 1006.0
20170816225808 81 148 13.0 20.0 0.00 0.05 0.05 79 1006.1
20170816225703 81 174 12.0 20.0 0.00 0.05 0.05 79 1006.1
20170816225602 81 165 12.0 20.0 0.00 0.05 0.05 79 1006.1
20170816225459 81 164 13.0 20.0 0.00 0.05 0.05 78 1006.1
20170816225407 81 178 14.0 22.0 0.00 0.05 0.05 79 1006.2
20170816225307 81 174 15.0 22.0 0.00 0.05 0.05 78 1006.2
20170816225204 81 148 15.0 22.0 0.00 0.05 0.05 78 1006.2
20170816225101 81 171 15.0 22.0 0.00 0.05 0.05 78 1006.2
20170816225017 81 163 15.0 22.0 0.00 0.05 0.05 78 1006.2
20170816224903 81 175 14.0 22.0 0.00 0.05 0.05 78 1006.2
20170816224800 82 165 14.0 22.0 0.00 0.05 0.05 78 1006.2
20170816224717 82 150 15.0 22.0 0.00 0.05 0.05 77 1006.2
20170816224600 82 162 16.0 20.0 0.00 0.05 0.05 77 1006.2
20170816224518 82 164 16.0 20.0 0.00 0.05 0.05 77 1006.2
20170816224408 82 167 15.0 20.0 0.00 0.05 0.05 77 1006.2
20170816224308 82 169 15.0 20.0 0.00 0.05 0.05 77 1006.2
20170816224200 82 167 13.0 20.0 0.00 0.05 0.05 77 1006.2
20170816224110 82 184 11.0 20.0 0.00 0.05 0.05 77 1006.2
20170816223900 82 188 12.0 20.0 0.00 0.05 0.05 78 1006.1
20170816223801 82 177 14.0 20.0 0.00 0.05 0.05 77 1006.1
20170816223659 82 161 14.0 20.0 0.00 0.05 0.05 77 1006.2
20170816223615 82 182 13.0 20.0 0.00 0.05 0.05 76 1006.1
20170816223513 82 167 14.0 20.0 0.00 0.05 0.05 77 1006.1
20170816223301 82 208 14.0 20.0 0.00 0.05 0.05 77 1006.1
20170816223201 82 171 14.0 20.0 0.00 0.05 0.05 78 1006.1
20170816223104 82 196 14.0 20.0 0.00 0.05 0.05 77 1006.1
20170816223018 81 182 15.0 20.0 0.00 0.05 0.05 77 1006.1
20170816222911 81 175 13.0 20.0 0.00 0.05 0.05 78 1006.1
20170816222811 81 168 13.0 20.0 0.00 0.05 0.05 79 1006.2
20170816222704 81 184 15.0 20.0 0.00 0.05 0.05 79 1006.1
20170816222601 81 167 15.0 20.0 0.00 0.05 0.05 79 1006.2
20170816222517 81 157 14.0 20.0 0.00 0.05 0.05 79 1006.2
20170816222413 81 169 13.0 18.0 0.00 0.05 0.05 81 1006.2
20170816222312 81 166 12.0 18.0 0.00 0.05 0.05 81 1006.2
20170816222206 81 165 13.0 18.0 0.00 0.05 0.05 81 1006.2
20170816222102 81 154 13.0 19.0 0.00 0.05 0.05 82 1006.2
20170816222001 81 142 14.0 20.0 0.00 0.05 0.05 82 1006.2
20170816221916 81 165 12.0 20.0 0.00 0.05 0.05 82 1006.2
20170816221816 81 160 12.0 21.0 0.00 0.05 0.05 84 1006.2
20170816221717 81 161 13.0 21.0 0.00 0.05 0.05 83 1006.2
20170816221615 81 166 14.0 21.0 0.00 0.05 0.05 83 1006.3
20170816221510 80 163 14.0 21.0 0.00 0.05 0.05 83 1006.4
20170816221402 80 163 15.0 21.0 0.00 0.05 0.05 82 1006.4
20170816221303 80 171 14.0 21.0 0.00 0.05 0.05 82 1006.4
20170816221203 80 161 14.0 21.0 0.00 0.05 0.05 83 1006.4
20170816221101 81 148 14.0 21.0 0.00 0.05 0.05 83 1006.4
20170816221004 81 139 15.0 21.0 0.00 0.05 0.05 83 1006.5
20170816220914 81 165 15.0 19.0 0.00 0.05 0.05 83 1006.5
20170816220812 81 173 14.0 19.0 0.00 0.05 0.05 84 1006.5
20170816220710 81 176 12.0 18.0 0.00 0.05 0.05 84 1006.5
20170816220607 80 146 12.0 17.0 0.00 0.05 0.05 84 1006.6
20170816220518 80 165 11.0 19.0 0.00 0.05 0.05 85 1006.5
20170816220410 80 128 11.0 21.0 0.00 0.05 0.05 84 1006.6
20170816220312 80 188 11.0 21.0 0.00 0.05 0.05 85 1006.6
20170816220212 80 184 11.0 21.0 0.00 0.05 0.05 84 1006.5
20170816220110 80 165 12.0 21.0 0.00 0.05 0.05 84 1006.7
20170816220009 80 170 12.0 21.0 0.00 0.05 0.05 84 1006.7
20170816215801 80 158 13.0 21.0 0.00 0.05 0.05 84 1006.7
20170816215719 80 146 16.0 21.0 0.00 0.05 0.05 83 1006.8
20170816215617 80 164 17.0 21.0 0.00 0.05 0.05 82 1006.8
20170816215517 80 165 15.0 21.0 0.00 0.05 0.05 84 1006.8
20170816215409 80 144 13.0 21.0 0.00 0.05 0.05 84 1006.8
20170816215309 80 164 13.0 21.0 0.00 0.05 0.05 83 1006.8
20170816215207 80 171 14.0 21.0 0.00 0.05 0.05 83 1006.8
20170816215107 80 165 14.0 21.0 0.00 0.05 0.05 83 1006.8
20170816215006 80 143 14.0 20.0 0.00 0.05 0.05 83 1006.9
20170816214903 80 187 15.0 20.0 0.00 0.05 0.05 83 1006.9
20170816214803 80 168 14.0 19.0 0.00 0.05 0.05 83 1006.8
20170816214701 80 164 12.0 19.0 0.00 0.05 0.05 83 1006.9
20170816214619 80 176 10.0 21.0 0.00 0.05 0.05 84 1006.9
20170816214518 80 178 9.0 21.0 0.00 0.05 0.05 85 1006.9
20170816214406 80 172 12.0 21.0 0.00 0.05 0.05 84 1006.8
20170816214302 80 163 13.0 21.0 0.00 0.05 0.05 83 1006.8
20170816214203 80 137 14.0 21.0 0.00 0.05 0.05 82 1006.8
20170816214102 80 161 12.0 21.0 0.00 0.05 0.05 82 1006.8
20170816214001 80 167 13.0 21.0 0.00 0.05 0.05 82 1006.8
20170816213914 81 147 14.0 21.0 0.00 0.05 0.05 82 1006.9
20170816213813 81 141 15.0 21.0 0.00 0.05 0.05 81 1007.0
20170816213712 81 157 13.0 19.0 0.00 0.05 0.05 81 1007.0
20170816213612 81 145 13.0 19.0 0.00 0.05 0.05 81 1006.9
20170816213516 81 173 12.0 19.0 0.00 0.05 0.05 82 1007.0
20170816213402 81 158 12.0 19.0 0.00 0.05 0.05 82 1007.0
20170816213318 81 126 12.0 19.0 0.00 0.05 0.05 81 1007.1
20170816213217 81 178 11.0 19.0 0.00 0.05 0.05 81 1007.1
20170816213115 81 140 12.0 19.0 0.00 0.05 0.05 81 1007.1
20170816213014 81 160 15.0 19.0 0.00 0.05 0.05 80 1007.1
20170816212905 81 150 15.0 19.0 0.00 0.05 0.05 79 1007.1
20170816212807 81 153 14.0 19.0 0.00 0.05 0.05 80 1007.2
20170816212702 81 163 12.0 19.0 0.00 0.05 0.05 81 1007.2
20170816212559 81 153 13.0 19.0 0.00 0.05 0.05 81 1007.2
20170816212518 81 172 13.0 19.0 0.00 0.05 0.05 80 1007.2
20170816212412 81 146 14.0 19.0 0.00 0.05 0.05 79 1007.2
20170816212309 82 192 14.0 19.0 0.00 0.05 0.05 79 1007.3
20170816212206 82 155 14.0 19.0 0.00 0.05 0.05 79 1007.3
20170816212003 82 153 11.0 18.0 0.00 0.05 0.05 81 1007.2
20170816211915 82 175 9.0 18.0 0.00 0.05 0.05 82 1007.2
20170816211712 81 163 11.0 18.0 0.00 0.05 0.05 81 1007.2
20170816211609 81 140 13.0 18.0 0.00 0.05 0.05 81 1007.2
20170816211506 81 160 13.0 18.0 0.00 0.05 0.05 81 1007.2
20170816211403 81 156 12.0 18.0 0.00 0.05 0.05 81 1007.2
20170816211301 81 162 13.0 18.0 0.00 0.05 0.05 80 1007.2
20170816211200 81 180 14.0 19.0 0.00 0.05 0.05 80 1007.2
20170816211059 81 159 13.0 19.0 0.00 0.05 0.05 80 1007.1
20170816211015 81 153 12.0 19.0 0.00 0.05 0.05 80 1007.2
20170816210909 81 156 12.0 19.0 0.00 0.05 0.05 80 1007.1
20170816210808 81 161 12.0 19.0 0.00 0.05 0.05 80 1007.2
20170816210711 81 159 12.0 19.0 0.00 0.05 0.05 79 1007.1
20170816210610 81 162 12.0 19.0 0.00 0.05 0.05 81 1007.1
20170816210510 81 177 13.0 19.0 0.00 0.05 0.05 80 1007.1
20170816210404 81 161 13.0 19.0 0.00 0.05 0.05 79 1007.0
20170816210305 82 170 12.0 19.0 0.00 0.05 0.05 79 1007.1
20170816210205 82 161 12.0 19.0 0.00 0.05 0.05 79 1007.1
20170816210108 82 157 12.0 18.0 0.00 0.05 0.05 81 1007.1
20170816210011 82 173 11.0 17.0 0.00 0.05 0.05 81 1007.1
20170816205921 81 115 11.0 17.0 0.00 0.05 0.05 81 1007.1
20170816205806 81 158 11.0 17.0 0.00 0.05 0.05 82 1007.1
20170816205706 81 154 12.0 22.0 0.00 0.05 0.05 81 1007.1
20170816205604 81 154 13.0 21.0 0.00 0.05 0.05 81 1007.2
20170816205504 81 156 12.0 21.0 0.00 0.05 0.05 80 1007.3
20170816205403 81 144 12.0 21.0 0.00 0.05 0.05 80 1007.2
20170816205303 81 153 12.0 21.0 0.00 0.05 0.05 80 1007.2
20170816205202 81 163 13.0 21.0 0.00 0.05 0.05 80 1007.3
20170816205003 81 150 14.0 21.0 0.00 0.05 0.05 80 1007.2
20170816204916 81 159 14.0 21.0 0.00 0.05 0.05 79 1007.1
20170816204815 81 149 12.0 22.0 0.00 0.05 0.05 81 1007.1
20170816204717 81 129 12.0 22.0 0.00 0.05 0.05 81 1007.1
20170816204517 81 157 14.0 22.0 0.00 0.05 0.05 80 1007.0
20170816204412 80 155 13.0 22.0 0.00 0.05 0.05 80 1007.0
20170816204312 80 167 13.0 22.0 0.00 0.05 0.05 80 1007.1
20170816204210 80 180 13.0 22.0 0.00 0.05 0.05 80 1007.1
20170816204108 81 148 13.0 22.0 0.00 0.05 0.05 80 1007.1
20170816204010 81 153 14.0 22.0 0.00 0.05 0.05 80 1007.1
20170816203905 81 163 14.0 22.0 0.00 0.05 0.05 79 1007.2
20170816203805 81 156 13.0 19.0 0.00 0.05 0.05 79 1007.2
20170816203705 81 169 11.0 19.0 0.00 0.05 0.05 80 1007.1
20170816203604 81 163 11.0 19.0 0.00 0.05 0.05 80 1007.1
20170816203504 81 149 11.0 19.0 0.00 0.05 0.05 80 1007.1
20170816203403 81 154 11.0 19.0 0.00 0.05 0.05 79 1007.0
20170816203303 81 160 11.0 19.0 0.00 0.05 0.05 79 1007.0
20170816203218 81 160 13.0 19.0 0.00 0.05 0.05 78 1007.1
20170816203118 81 173 11.0 19.0 0.00 0.05 0.05 79 1007.1
20170816203017 81 145 10.0 21.0 0.00 0.05 0.05 80 1007.1
20170816202907 81 155 9.0 21.0 0.00 0.05 0.05 79 1007.0
20170816202803 81 96 8.0 21.0 0.00 0.05 0.05 80 1007.1
20170816202703 81 111 9.0 19.0 0.00 0.05 0.05 80 1007.1
20170816202620 81 138 9.0 19.0 0.00 0.05 0.05 80 1007.0
20170816202517 81 126 11.0 19.0 0.00 0.05 0.05 80 1006.9
20170816202411 81 136 12.0 19.0 0.00 0.05 0.05 80 1007.0
20170816202311 81 134 13.0 19.0 0.00 0.05 0.05 80 1006.9
20170816202210 81 142 13.0 19.0 0.00 0.05 0.05 80 1006.9
20170816202110 81 188 14.0 20.0 0.00 0.05 0.05 80 1007.0
20170816202013 81 142 15.0 20.0 0.01 0.05 0.05 79 1006.9
20170816201909 81 153 15.0 20.0 0.01 0.05 0.05 79 1006.9
20170816201809 81 144 13.0 20.0 0.01 0.05 0.05 80 1006.9
20170816201709 81 140 12.0 20.0 0.01 0.05 0.05 81 1006.9
20170816201610 81 149 11.0 20.0 0.01 0.05 0.05 81 1007.0
20170816201509 81 125 13.0 20.0 0.01 0.05 0.05 81 1007.0
20170816201401 81 136 14.0 20.0 0.01 0.05 0.05 80 1007.0
20170816201305 81 164 14.0 18.0 0.01 0.05 0.05 80 1007.0
20170816201203 81 143 12.0 18.0 0.01 0.05 0.05 81 1007.0
20170816201101 81 150 11.0 16.0 0.01 0.05 0.05 82 1007.0
20170816201001 81 161 10.0 16.0 0.02 0.05 0.05 83 1007.0
20170816200914 81 133 11.0 16.0 0.02 0.05 0.05 81 1006.9
20170816200815 80 148 12.0 16.0 0.03 0.05 0.05 81 1006.9
20170816200715 80 136 12.0 16.0 0.05 0.05 0.05 82 1006.9
20170816200618 80 130 11.0 16.0 0.05 0.05 0.05 83 1006.9
20170816200409 80 137 9.0 15.0 0.05 0.05 0.05 84 1006.8
20170816200309 80 142 9.0 16.0 0.05 0.05 0.05 83 1006.8
20170816200209 80 163 10.0 16.0 0.05 0.05 0.05 83 1006.7
20170816200109 80 196 9.0 16.0 0.05 0.05 0.05 83 1006.7
20170816195906 80 116 6.0 18.0 0.05 0.05 0.05 84 1006.7
20170816195805 80 158 6.0 18.0 0.05 0.05 0.05 84 1006.7
20170816195704 80 134 7.0 18.0 0.05 0.05 0.05 85 1006.7
20170816195604 80 141 9.0 18.0 0.05 0.05 0.05 85 1006.7
20170816195503 80 128 9.0 18.0 0.05 0.05 0.05 85 1006.7
20170816195319 80 83 7.0 18.0 0.05 0.05 0.05 86 1006.7
20170816195217 80 109 8.0 18.0 0.05 0.05 0.05 86 1006.7
20170816195117 79 121 7.0 15.0 0.05 0.05 0.05 86 1006.9
20170816194910 79 117 6.0 13.0 0.05 0.05 0.05 88 1006.9
20170816194808 79 127 6.0 13.0 0.05 0.05 0.05 88 1007.0
20170816194707 79 106 6.0 13.0 0.05 0.05 0.05 88 1007.0
20170816194607 79 80 6.0 13.0 0.05 0.05 0.05 88 1007.0
20170816194504 78 121 5.0 13.0 0.05 0.05 0.05 88 1007.1
20170816194417 78 80 5.0 13.0 0.05 0.05 0.05 88 1007.2
20170816194316 78 131 5.0 13.0 0.05 0.05 0.05 88 1007.2
20170816194216 78 110 6.0 13.0 0.05 0.05 0.05 88 1007.3
20170816194111 78 117 6.0 13.0 0.05 0.05 0.05 87 1007.3
20170816194011 78 139 7.0 13.0 0.05 0.05 0.05 87 1007.3
20170816193910 78 121 6.0 12.0 0.05 0.05 0.05 87 1007.4
20170816193809 78 107 6.0 12.0 0.05 0.05 0.05 87 1007.5
20170816193707 78 148 5.0 13.0 0.05 0.05 0.05 87 1007.5
20170816193606 78 113 5.0 13.0 0.05 0.05 0.05 87 1007.6
20170816193505 78 164 5.0 13.0 0.05 0.05 0.05 88 1007.6
20170816193400 78 142 5.0 13.0 0.05 0.05 0.05 88 1007.6
20170816193303 77 121 5.0 13.0 0.05 0.05 0.05 87 1007.7
20170816193219 77 65 6.0 16.0 0.05 0.05 0.05 88 1007.8
20170816193119 77 157 6.0 16.0 0.05 0.05 0.05 88 1007.8
20170816193018 77 108 7.0 16.0 0.05 0.05 0.05 88 1007.8
20170816192911 77 120 6.0 16.0 0.05 0.05 0.05 88 1007.9
20170816192810 77 92 6.0 16.0 0.05 0.05 0.05 87 1007.9
20170816192711 77 144 6.0 16.0 0.05 0.05 0.05 87 1008.0
20170816192610 77 138 7.0 16.0 0.05 0.05 0.05 87 1008.1
20170816192508 78 153 9.0 16.0 0.05 0.05 0.05 86 1008.2
20170816192404 78 136 10.0 16.0 0.05 0.05 0.05 85 1008.3